FW7316 Weather Reports


Display with metric or nautical units.
time (UTC)temp
F
wind
direction
speed
MPH
gust
MPH
rain 1hr
in
rain 24hr
in
rain mn
in
humidity
%
barometer
mb
20260831220506 79 228 7.0 14.0 0.00 0.00 0.00 54 1012.3
20260831220403 79 213 9.0 14.0 0.00 0.00 0.00 55 1012.3
20260831220304 79 196 4.0 14.0 0.00 0.00 0.00 55 1012.3
20260831220206 79 238 12.0 16.0 0.00 0.00 0.00 55 1012.3
20260831220136 79 229 9.0 16.0 0.00 0.00 0.00 55 1012.3
20260831215907 79 200 7.0 16.0 0.00 0.00 0.00 55 1012.2
20260831215804 79 213 11.0 16.0 0.00 0.00 0.00 55 1012.2
20260831215705 79 218 13.0 16.0 0.00 0.00 0.00 55 1012.2
20260831215607 79 194 9.0 16.0 0.00 0.00 0.00 55 1012.2
20260831215504 79 225 9.0 16.0 0.00 0.00 0.00 55 1012.2
20260831215307 79 215 9.0 16.0 0.00 0.00 0.00 56 1012.2
20260831215104 78 217 13.0 16.0 0.00 0.00 0.00 56 1012.1
20260831215007 78 236 8.0 12.0 0.00 0.00 0.00 56 1012.2
20260831214904 78 223 11.0 11.0 0.00 0.00 0.00 57 1012.3
20260831214706 77 219 8.0 11.0 0.00 0.00 0.00 58 1012.2
20260831214604 77 193 5.0 11.0 0.00 0.00 0.00 58 1012.2
20260831214504 77 211 7.0 11.0 0.00 0.00 0.00 59 1012.2
20260831214406 76 194 7.0 11.0 0.00 0.00 0.00 59 1012.1
20260831214304 76 182 4.0 8.0 0.00 0.00 0.00 59 1012.2
20260831214205 76 190 4.0 8.0 0.00 0.00 0.00 60 1012.1
20260831214004 75 207 2.0 8.0 0.00 0.00 0.00 61 1012.1
20260831213807 74 198 5.0 9.0 0.00 0.00 0.00 62 1012.1
20260831213704 74 192 4.0 9.0 0.00 0.00 0.00 62 1012.1
20260831213604 74 214 5.0 9.0 0.00 0.00 0.00 64 1012.2
20260831213507 74 194 3.0 9.0 0.00 0.00 0.00 64 1012.2
20260831213404 73 196 4.0 9.0 0.00 0.00 0.00 64 1012.1
20260831213304 73 242 2.0 9.0 0.00 0.00 0.00 64 1012.2
20260831213207 73 240 4.0 9.0 0.00 0.00 0.00 64 1012.2
20260831213104 73 191 4.0 9.0 0.00 0.00 0.00 65 1012.2
20260831213005 73 186 6.0 9.0 0.00 0.00 0.00 67 1012.2
20260831212907 73 244 1.0 5.0 0.00 0.00 0.00 67 1012.2
20260831212804 73 216 2.0 5.0 0.00 0.00 0.00 66 1012.1
20260831212704 73 216 2.0 5.0 0.00 0.00 0.00 66 1012.1
20260831212607 73 169 2.0 5.0 0.00 0.00 0.00 66 1012.1
20260831212504 73 199 3.0 5.0 0.00 0.00 0.00 67 1012.1
20260831212407 73 215 2.0 5.0 0.00 0.00 0.00 67 1012.1
20260831212308 73 232 2.0 5.0 0.00 0.00 0.00 67 1012.1
20260831212204 73 208 3.0 5.0 0.00 0.00 0.00 67 1012.2
20260831212105 73 241 2.0 5.0 0.00 0.00 0.00 67 1012.1
20260831211904 73 196 3.0 5.0 0.00 0.00 0.00 67 1012.1
20260831211804 73 32 0.0 4.0 0.00 0.00 0.00 67 1012.1
20260831211707 73 99 1.0 4.0 0.00 0.00 0.00 66 1012.1
20260831211604 73 100 2.0 4.0 0.00 0.00 0.00 67 1012.1
20260831211505 73 98 3.0 4.0 0.00 0.00 0.00 66 1012.2
20260831211406 73 86 1.0 4.0 0.00 0.00 0.00 66 1012.1
20260831211304 73 111 3.0 4.0 0.00 0.00 0.00 67 1012.1
20260831211204 74 86 2.0 4.0 0.00 0.00 0.00 66 1012.1
20260831211106 74 86 2.0 4.0 0.00 0.00 0.00 65 1012.1
20260831211005 74 86 1.0 5.0 0.00 0.00 0.00 65 1012.1
20260831210905 74 86 3.0 5.0 0.00 0.00 0.00 65 1012.1
20260831210806 74 46 2.0 5.0 0.00 0.00 0.00 65 1012.1
20260831210704 74 46 2.0 5.0 0.00 0.00 0.00 65 1012.1
20260831210605 74 46 3.0 5.0 0.00 0.00 0.00 65 1012.1
20260831210405 74 28 2.0 5.0 0.00 0.00 0.00 65 1012.1
20260831210304 74 23 3.0 5.0 0.00 0.00 0.00 65 1012.1
20260831210207 74 15 2.0 5.0 0.00 0.00 0.00 65 1012.1
20260831210104 74 58 2.0 5.0 0.00 0.00 0.00 64 1012.1
20260831210007 74 40 3.0 4.0 0.00 0.00 0.00 64 1012.0
20260831205804 74 40 3.0 4.0 0.00 0.00 0.00 64 1012.0
20260831205704 74 40 4.0 4.0 0.00 0.00 0.00 65 1012.0
20260831205504 75 11 3.0 3.0 0.00 0.00 0.00 65 1012.0
20260831205404 75 140 1.0 3.0 0.00 0.00 0.00 65 1012.0
20260831205307 75 140 1.0 3.0 0.00 0.00 0.00 64 1011.9
20260831205007 75 140 2.0 3.0 0.00 0.00 0.00 63 1011.9
20260831204904 75 140 1.0 3.0 0.00 0.00 0.00 63 1012.0
20260831204706 76 140 3.0 5.0 0.00 0.00 0.00 62 1011.9
20260831204604 76 140 2.0 5.0 0.00 0.00 0.00 62 1011.9
20260831204407 76 153 1.0 5.0 0.00 0.00 0.00 62 1011.9
20260831204204 76 153 0.0 5.0 0.00 0.00 0.00 62 1011.9
20260831204109 76 153 0.0 5.0 0.00 0.00 0.00 61 1011.9
20260831204004 76 153 0.0 6.0 0.00 0.00 0.00 61 1011.9
20260831203904 76 153 2.0 6.0 0.00 0.00 0.00 61 1011.9
20260831203807 76 192 3.0 6.0 0.00 0.00 0.00 61 1011.9
20260831203704 76 216 2.0 6.0 0.00 0.00 0.00 61 1011.8
20260831203604 76 216 2.0 7.0 0.00 0.00 0.00 61 1011.8
20260831203506 76 225 3.0 8.0 0.00 0.00 0.00 61 1011.8
20260831203405 76 150 2.0 8.0 0.00 0.00 0.00 61 1011.8
20260831203307 76 150 1.0 8.0 0.00 0.00 0.00 61 1011.8
20260831203104 76 139 4.0 8.0 0.00 0.00 0.00 61 1011.8
20260831203006 76 144 5.0 8.0 0.00 0.00 0.00 61 1011.7
20260831202906 76 144 2.0 8.0 0.00 0.00 0.00 61 1011.7
20260831202704 77 147 1.0 8.0 0.00 0.00 0.00 61 1011.7
20260831202506 77 134 8.0 8.0 0.00 0.00 0.00 61 1011.7
20260831202406 77 140 7.0 7.0 0.00 0.00 0.00 61 1011.7
20260831202307 77 141 5.0 7.0 0.00 0.00 0.00 60 1011.7
20260831202205 77 144 3.0 7.0 0.00 0.00 0.00 60 1011.7
20260831202104 77 134 4.0 7.0 0.00 0.00 0.00 60 1011.8
20260831202007 77 130 5.0 7.0 0.00 0.00 0.00 60 1011.8
20260831201905 77 138 6.0 7.0 0.00 0.00 0.00 60 1011.7
20260831201804 77 138 4.0 7.0 0.00 0.00 0.00 60 1011.8
20260831201706 77 123 5.0 7.0 0.00 0.00 0.00 60 1011.7
20260831201604 77 117 5.0 7.0 0.00 0.00 0.00 60 1011.8
20260831201504 78 129 5.0 7.0 0.00 0.00 0.00 60 1011.8
20260831201409 78 121 5.0 7.0 0.00 0.00 0.00 59 1011.7
20260831201204 78 128 5.0 7.0 0.00 0.00 0.00 59 1011.8
20260831201108 78 112 5.0 7.0 0.00 0.00 0.00 59 1011.8
20260831200905 78 117 4.0 7.0 0.00 0.00 0.00 58 1011.8
20260831200807 78 107 4.0 7.0 0.00 0.00 0.00 58 1011.8
20260831200704 79 125 5.0 7.0 0.00 0.00 0.00 59 1011.8
20260831200604 79 70 2.0 7.0 0.00 0.00 0.00 58 1011.8
20260831200507 79 120 2.0 7.0 0.00 0.00 0.00 58 1011.8
20260831200404 79 100 6.0 7.0 0.00 0.00 0.00 57 1011.8
20260831200305 79 92 7.0 7.0 0.00 0.00 0.00 57 1011.8
20260831200206 79 98 2.0 7.0 0.00 0.00 0.00 57 1011.9
20260831200119 79 109 4.0 7.0 0.00 0.00 0.00 57 1011.9
20260831200008 79 121 2.0 7.0 0.00 0.00 0.00 57 1011.9
20260831195804 80 127 4.0 12.0 0.00 0.00 0.00 56 1011.9
20260831195704 80 169 4.0 12.0 0.00 0.00 0.00 57 1011.9
20260831195606 80 77 3.0 12.0 0.00 0.00 0.00 56 1011.9
20260831195506 80 89 3.0 12.0 0.00 0.00 0.00 56 1011.9
20260831195404 80 205 1.0 12.0 0.00 0.00 0.00 56 1011.8
20260831195308 80 161 2.0 12.0 0.00 0.00 0.00 56 1011.8
20260831195205 80 192 5.0 12.0 0.00 0.00 0.00 56 1011.8
20260831195010 80 179 3.0 12.0 0.00 0.00 0.00 56 1011.8
20260831194905 80 182 3.0 12.0 0.00 0.00 0.00 56 1011.7
20260831194604 80 188 5.0 10.0 0.00 0.00 0.00 56 1011.7
20260831194505 80 182 6.0 10.0 0.00 0.00 0.00 57 1011.7
20260831194406 80 184 7.0 10.0 0.00 0.00 0.00 57 1011.7
20260831194305 80 190 6.0 10.0 0.00 0.00 0.00 57 1011.7
20260831194109 80 184 5.0 10.0 0.00 0.00 0.00 57 1011.7
20260831194021 80 186 6.0 10.0 0.00 0.00 0.00 57 1011.7
20260831193904 80 190 11.0 11.0 0.00 0.00 0.00 57 1011.7
20260831193807 80 198 4.0 8.0 0.00 0.00 0.00 57 1011.8
20260831193704 80 191 7.0 11.0 0.00 0.00 0.00 57 1011.7
20260831193604 80 209 6.0 13.0 0.00 0.00 0.00 57 1011.7
20260831193507 80 212 4.0 13.0 0.00 0.00 0.00 57 1011.7
20260831193404 80 180 6.0 13.0 0.00 0.00 0.00 57 1011.8
20260831193310 80 194 2.0 13.0 0.00 0.00 0.00 57 1011.8
20260831193207 80 193 6.0 13.0 0.00 0.00 0.00 57 1011.7
20260831193104 80 197 3.0 13.0 0.00 0.00 0.00 57 1011.8
20260831193004 80 192 6.0 13.0 0.00 0.00 0.00 57 1011.8
20260831192907 80 189 7.0 13.0 0.00 0.00 0.00 57 1011.8
20260831192805 80 183 5.0 13.0 0.00 0.00 0.00 57 1011.7
20260831192704 80 190 9.0 14.0 0.00 0.00 0.00 58 1011.7
20260831192607 80 173 6.0 14.0 0.00 0.00 0.00 58 1011.7
20260831192504 80 186 9.0 14.0 0.00 0.00 0.00 58 1011.7
20260831192404 80 165 4.0 14.0 0.00 0.00 0.00 58 1011.7
20260831192306 80 200 7.0 14.0 0.00 0.00 0.00 58 1011.8
20260831192204 79 203 7.0 14.0 0.00 0.00 0.00 59 1011.8
20260831192008 79 196 7.0 14.0 0.00 0.00 0.00 59 1011.8
20260831191804 78 188 9.0 14.0 0.00 0.00 0.00 60 1011.8
20260831191706 78 164 6.0 14.0 0.00 0.00 0.00 61 1011.8
20260831191605 78 169 6.0 10.0 0.00 0.00 0.00 61 1011.9
20260831191504 78 167 4.0 10.0 0.00 0.00 0.00 62 1011.9
20260831191304 77 180 6.0 10.0 0.00 0.00 0.00 62 1011.9
20260831191204 77 187 8.0 10.0 0.00 0.00 0.00 63 1011.9
20260831191106 77 202 7.0 10.0 0.00 0.00 0.00 62 1011.9
20260831191004 77 229 7.0 9.0 0.00 0.00 0.00 63 1012.0
20260831190904 77 204 5.0 9.0 0.00 0.00 0.00 63 1011.9
20260831190806 77 194 7.0 9.0 0.00 0.00 0.00 63 1011.9
20260831190704 77 200 6.0 9.0 0.00 0.00 0.00 63 1012.0
20260831190604 77 207 9.0 9.0 0.00 0.00 0.00 62 1011.9
20260831190506 77 191 1.0 4.0 0.00 0.00 0.00 63 1011.9
20260831190404 77 191 2.0 5.0 0.00 0.00 0.00 63 1011.9
20260831190304 77 191 1.0 5.0 0.00 0.00 0.00 63 1011.9
20260831190206 77 191 1.0 5.0 0.00 0.00 0.00 63 1011.9
20260831190105 77 191 2.0 5.0 0.00 0.00 0.00 63 1011.9
20260831185907 77 175 3.0 6.0 0.00 0.00 0.00 62 1011.9
20260831185805 77 169 1.0 6.0 0.00 0.00 0.00 62 1011.8
20260831185704 77 169 2.0 6.0 0.00 0.00 0.00 62 1011.8
20260831185606 77 173 1.0 6.0 0.00 0.00 0.00 63 1011.7
20260831185504 78 173 2.0 6.0 0.00 0.00 0.00 63 1011.7
20260831185404 78 171 3.0 6.0 0.00 0.00 0.00 63 1011.7
20260831185008 78 178 1.0 6.0 0.00 0.00 0.00 63 1011.7
20260831184904 78 177 6.0 6.0 0.00 0.00 0.00 63 1011.6
20260831184804 78 183 5.0 6.0 0.00 0.00 0.00 63 1011.6
20260831184706 78 204 4.0 6.0 0.00 0.00 0.00 62 1011.6
20260831184604 78 179 2.0 6.0 0.00 0.00 0.00 63 1011.7
20260831184504 78 189 1.0 6.0 0.00 0.00 0.00 62 1011.6
20260831184406 78 179 3.0 6.0 0.00 0.00 0.00 62 1011.6
20260831184304 78 175 3.0 6.0 0.00 0.00 0.00 62 1011.6
20260831184107 78 165 2.0 6.0 0.00 0.00 0.00 62 1011.6
20260831184006 78 188 4.0 6.0 0.00 0.00 0.00 62 1011.5
20260831183904 78 186 4.0 6.0 0.00 0.00 0.00 62 1011.5
20260831183806 78 188 4.0 6.0 0.00 0.00 0.00 62 1011.5
20260831183706 78 179 5.0 6.0 0.00 0.00 0.00 62 1011.5
20260831183507 78 186 6.0 6.0 0.00 0.00 0.00 62 1011.5
20260831183404 78 175 4.0 6.0 0.00 0.00 0.00 62 1011.5
20260831183304 78 211 4.0 6.0 0.00 0.00 0.00 62 1011.6
20260831183207 78 196 4.0 6.0 0.00 0.00 0.00 62 1011.5
20260831183104 78 173 4.0 6.0 0.00 0.00 0.00 62 1011.5
20260831183006 78 171 4.0 6.0 0.00 0.00 0.00 62 1011.5
20260831182909 78 173 4.0 6.0 0.00 0.00 0.00 62 1011.5
20260831182804 79 178 6.0 6.0 0.00 0.00 0.00 61 1011.5
20260831182704 79 185 4.0 6.0 0.00 0.00 0.00 61 1011.5
20260831182607 79 195 4.0 6.0 0.00 0.00 0.00 61 1011.5
20260831182505 79 195 4.0 6.0 0.00 0.00 0.00 61 1011.5
20260831182404 79 195 3.0 6.0 0.00 0.00 0.00 61 1011.5
20260831182306 80 196 0.0 6.0 0.00 0.00 0.00 59 1011.5
20260831182203 80 196 0.0 6.0 0.00 0.00 0.00 59 1011.5
20260831182104 80 196 1.0 6.0 0.00 0.00 0.00 59 1011.4
20260831182011 80 196 3.0 6.0 0.00 0.00 0.00 59 1011.4
20260831181904 80 198 5.0 5.0 0.00 0.00 0.00 59 1011.4
20260831181803 80 236 2.0 3.0 0.00 0.00 0.00 58 1011.4
20260831181706 81 236 0.0 3.0 0.00 0.00 0.00 58 1011.3
20260831181604 81 236 1.0 3.0 0.00 0.00 0.00 58 1011.4
20260831181504 81 236 0.0 3.0 0.00 0.00 0.00 58 1011.4
20260831181407 81 236 1.0 3.0 0.00 0.00 0.00 57 1011.4
20260831181304 81 236 2.0 4.0 0.00 0.00 0.00 57 1011.4
20260831181206 82 236 2.0 4.0 0.00 0.00 0.00 57 1011.4
20260831180904 82 250 2.0 4.0 0.00 0.00 0.00 56 1011.3
20260831180807 83 40 0.0 4.0 0.00 0.00 0.00 56 1011.3
20260831180704 83 40 0.0 4.0 0.00 0.00 0.00 55 1011.3
20260831180604 83 40 0.0 4.0 0.00 0.00 0.00 55 1011.3
20260831180507 83 40 1.0 4.0 0.00 0.00 0.00 53 1011.3
20260831180404 83 40 2.0 6.0 0.00 0.00 0.00 53 1011.3
20260831180208 83 37 3.0 6.0 0.00 0.00 0.00 53 1011.3
20260831180129 84 34 3.0 7.0 0.00 0.00 0.00 53 1011.3
20260831180007 84 42 2.0 7.0 0.00 0.00 0.00 53 1011.3
20260831175906 84 41 2.0 7.0 0.00 0.00 0.00 52 1011.4
20260831175704 84 63 4.0 7.0 0.00 0.00 0.00 52 1011.3
20260831175404 84 88 3.0 7.0 0.00 0.00 0.00 52 1011.3
20260831175306 84 69 2.0 7.0 0.00 0.00 0.00 52 1011.3
20260831175204 84 69 3.0 7.0 0.00 0.00 0.00 52 1011.4
20260831175103 84 69 2.0 7.0 0.00 0.00 0.00 52 1011.4
20260831175008 84 76 7.0 7.0 0.00 0.00 0.00 52 1011.4
20260831174904 84 67 5.0 9.0 0.00 0.00 0.00 52 1011.4
20260831174804 84 99 2.0 9.0 0.00 0.00 0.00 52 1011.4
20260831174604 84 144 3.0 9.0 0.00 0.00 0.00 52 1011.3
20260831174504 84 101 1.0 9.0 0.00 0.00 0.00 52 1011.4
20260831174407 84 82 2.0 9.0 0.00 0.00 0.00 51 1011.4
20260831174304 84 117 5.0 9.0 0.00 0.00 0.00 52 1011.4
20260831174204 84 134 5.0 9.0 0.00 0.00 0.00 52 1011.4
20260831174107 84 46 3.0 9.0 0.00 0.00 0.00 51 1011.4
20260831174006 84 94 8.0 9.0 0.00 0.00 0.00 51 1011.4
20260831173806 84 137 6.0 8.0 0.00 0.00 0.00 51 1011.4
20260831173305 85 170 2.0 5.0 0.00 0.00 0.00 50 1011.4
20260831173104 85 172 4.0 7.0 0.00 0.00 0.00 50 1011.4
20260831173005 85 172 3.0 7.0 0.00 0.00 0.00 49 1011.3
20260831172906 85 134 1.0 7.0 0.00 0.00 0.00 49 1011.4
20260831172804 85 134 3.0 7.0 0.00 0.00 0.00 49 1011.4
20260831172705 85 140 2.0 10.0 0.00 0.00 0.00 49 1011.4
20260831172606 86 198 4.0 10.0 0.00 0.00 0.00 49 1011.4
20260831172504 86 151 4.0 10.0 0.00 0.00 0.00 49 1011.3
20260831172406 86 149 3.0 10.0 0.00 0.00 0.00 49 1011.3
20260831172010 86 170 5.0 10.0 0.00 0.00 0.00 49 1011.3
20260831171904 86 165 1.0 10.0 0.00 0.00 0.00 49 1011.3
20260831171804 86 112 3.0 10.0 0.00 0.00 0.00 49 1011.3
20260831171707 86 134 6.0 10.0 0.00 0.00 0.00 48 1011.3
20260831171604 86 126 4.0 13.0 0.00 0.00 0.00 48 1011.3
20260831171504 86 154 4.0 13.0 0.00 0.00 0.00 48 1011.3
20260831171304 86 124 4.0 13.0 0.00 0.00 0.00 48 1011.3
20260831171205 86 98 3.0 13.0 0.00 0.00 0.00 48 1011.3
20260831171004 86 121 5.0 13.0 0.00 0.00 0.00 48 1011.3
20260831170904 87 121 7.0 13.0 0.00 0.00 0.00 48 1011.2
20260831170806 87 86 5.0 13.0 0.00 0.00 0.00 48 1011.3
20260831170704 87 94 6.0 13.0 0.00 0.00 0.00 48 1011.2
20260831170604 87 78 8.0 12.0 0.00 0.00 0.00 48 1011.3
20260831170507 87 84 7.0 12.0 0.00 0.00 0.00 48 1011.3
20260831170404 87 58 8.0 12.0 0.00 0.00 0.00 48 1011.3
20260831170304 87 128 9.0 11.0 0.00 0.00 0.00 49 1011.3
20260831170206 87 98 6.0 12.0 0.00 0.00 0.00 48 1011.4
20260831170104 87 88 5.0 12.0 0.00 0.00 0.00 48 1011.4
20260831170008 87 95 10.0 12.0 0.00 0.00 0.00 48 1011.4
20260831165907 87 86 7.0 12.0 0.00 0.00 0.00 48 1011.4
20260831165804 87 113 4.0 12.0 0.00 0.00 0.00 48 1011.4
20260831165704 87 109 8.0 12.0 0.00 0.00 0.00 48 1011.3
20260831165606 87 103 8.0 12.0 0.00 0.00 0.00 48 1011.3
20260831165504 87 111 5.0 12.0 0.00 0.00 0.00 48 1011.4
20260831165404 88 89 6.0 12.0 0.00 0.00 0.00 48 1011.4
20260831165306 88 86 6.0 12.0 0.00 0.00 0.00 47 1011.4
20260831165204 88 86 8.0 12.0 0.00 0.00 0.00 47 1011.4
20260831165007 88 80 6.0 11.0 0.00 0.00 0.00 48 1011.4
20260831164904 88 82 9.0 11.0 0.00 0.00 0.00 48 1011.4
20260831164804 88 107 7.0 11.0 0.00 0.00 0.00 47 1011.4
20260831164706 88 90 9.0 12.0 0.00 0.00 0.00 47 1011.4
20260831164604 88 107 4.0 12.0 0.00 0.00 0.00 48 1011.5
20260831164504 88 109 4.0 12.0 0.00 0.00 0.00 47 1011.4
20260831164407 88 85 8.0 12.0 0.00 0.00 0.00 47 1011.5
20260831164304 88 108 8.0 12.0 0.00 0.00 0.00 47 1011.5
20260831164107 88 78 10.0 12.0 0.00 0.00 0.00 47 1011.5
20260831164006 88 96 7.0 12.0 0.00 0.00 0.00 47 1011.4
20260831163904 89 90 8.0 12.0 0.00 0.00 0.00 47 1011.5
20260831163807 89 79 6.0 12.0 0.00 0.00 0.00 47 1011.5
20260831163704 89 116 11.0 11.0 0.00 0.00 0.00 47 1011.5
20260831163604 89 122 7.0 11.0 0.00 0.00 0.00 46 1011.5
20260831163509 89 117 5.0 10.0 0.00 0.00 0.00 47 1011.5
20260831163304 89 108 7.0 10.0 0.00 0.00 0.00 46 1011.5
20260831163208 89 124 7.0 11.0 0.00 0.00 0.00 46 1011.5
20260831163104 89 99 8.0 11.0 0.00 0.00 0.00 46 1011.5
20260831163007 89 111 7.0 11.0 0.00 0.00 0.00 46 1011.5
20260831162804 89 133 6.0 12.0 0.00 0.00 0.00 46 1011.5
20260831162705 89 110 5.0 12.0 0.00 0.00 0.00 46 1011.5
20260831162607 89 113 9.0 12.0 0.00 0.00 0.00 45 1011.5
20260831162504 89 92 6.0 12.0 0.00 0.00 0.00 45 1011.6
20260831162404 89 101 9.0 12.0 0.00 0.00 0.00 45 1011.6
20260831162307 89 98 8.0 12.0 0.00 0.00 0.00 45 1011.5
20260831162204 89 88 9.0 12.0 0.00 0.00 0.00 45 1011.5
20260831162104 89 105 7.0 12.0 0.00 0.00 0.00 45 1011.5
20260831162008 90 99 7.0 12.0 0.00 0.00 0.00 45 1011.5
20260831161905 90 115 7.0 12.0 0.00 0.00 0.00 44 1011.5
20260831161804 90 83 10.0 12.0 0.00 0.00 0.00 45 1011.5
20260831161707 90 113 5.0 12.0 0.00 0.00 0.00 44 1011.5
20260831161604 90 121 7.0 12.0 0.00 0.00 0.00 44 1011.6
20260831161504 90 109 10.0 12.0 0.00 0.00 0.00 45 1011.6
20260831161407 90 128 6.0 12.0 0.00 0.00 0.00 45 1011.5
20260831161304 90 84 10.0 14.0 0.00 0.00 0.00 45 1011.6
20260831161106 90 96 7.0 14.0 0.00 0.00 0.00 45 1011.5
20260831161006 90 79 6.0 14.0 0.00 0.00 0.00 45 1011.5
20260831160904 90 108 4.0 14.0 0.00 0.00 0.00 45 1011.6
20260831160603 90 90 7.0 14.0 0.00 0.00 0.00 44 1011.6
20260831160507 90 93 8.0 14.0 0.00 0.00 0.00 45 1011.6
20260831160404 90 84 10.0 16.0 0.00 0.00 0.00 45 1011.6
20260831160305 90 91 9.0 16.0 0.00 0.00 0.00 45 1011.6
20260831160119 90 74 8.0 16.0 0.00 0.00 0.00 44 1011.6
20260831160007 90 78 10.0 16.0 0.00 0.00 0.00 44 1011.5
20260831155906 90 79 7.0 16.0 0.00 0.00 0.00 44 1011.5
20260831155804 90 49 7.0 16.0 0.00 0.00 0.00 44 1011.6
20260831155704 90 34 7.0 16.0 0.00 0.00 0.00 44 1011.6
20260831155606 90 78 9.0 16.0 0.00 0.00 0.00 45 1011.5
20260831155504 90 94 10.0 16.0 0.00 0.00 0.00 45 1011.5
20260831155403 90 83 7.0 14.0 0.00 0.00 0.00 44 1011.6
20260831155306 90 76 12.0 14.0 0.00 0.00 0.00 44 1011.6
20260831155204 90 69 9.0 14.0 0.00 0.00 0.00 45 1011.6
20260831155104 90 53 6.0 13.0 0.00 0.00 0.00 45 1011.6
20260831154804 91 76 10.0 15.0 0.00 0.00 0.00 44 1011.6
20260831154604 91 92 9.0 15.0 0.00 0.00 0.00 44 1011.5
20260831154504 91 103 9.0 15.0 0.00 0.00 0.00 43 1011.6
20260831154407 91 118 9.0 15.0 0.00 0.00 0.00 44 1011.5
20260831154304 91 136 7.0 15.0 0.00 0.00 0.00 44 1011.5
20260831154204 91 96 10.0 15.0 0.00 0.00 0.00 44 1011.5
20260831154106 91 92 9.0 15.0 0.00 0.00 0.00 45 1011.5
20260831154004 91 89 11.0 15.0 0.00 0.00 0.00 45 1011.6
20260831153904 91 57 9.0 14.0 0.00 0.00 0.00 44 1011.5
20260831153806 91 79 9.0 14.0 0.00 0.00 0.00 45 1011.6
20260831153704 91 78 10.0 14.0 0.00 0.00 0.00 44 1011.6
20260831153604 91 61 7.0 14.0 0.00 0.00 0.00 44 1011.6
20260831153507 91 80 11.0 14.0 0.00 0.00 0.00 44 1011.6
20260831153304 91 86 13.0 14.0 0.00 0.00 0.00 44 1011.7
20260831153206 91 97 5.0 14.0 0.00 0.00 0.00 44 1011.6
20260831153104 91 96 11.0 14.0 0.00 0.00 0.00 43 1011.7
20260831152906 91 75 9.0 14.0 0.00 0.00 0.00 44 1011.6
20260831152704 91 86 8.0 14.0 0.00 0.00 0.00 42 1011.6
20260831152404 92 99 8.0 13.0 0.00 0.00 0.00 43 1011.6
20260831152307 92 76 12.0 14.0 0.00 0.00 0.00 43 1011.6
20260831152203 91 46 4.0 14.0 0.00 0.00 0.00 42 1011.6
20260831152104 92 64 5.0 14.0 0.00 0.00 0.00 41 1011.6
20260831152007 92 84 9.0 14.0 0.00 0.00 0.00 42 1011.6
20260831151904 92 22 7.0 14.0 0.00 0.00 0.00 41 1011.6
20260831151804 92 78 11.0 14.0 0.00 0.00 0.00 42 1011.6
20260831151707 92 60 5.0 14.0 0.00 0.00 0.00 41 1011.7
20260831151604 92 78 8.0 14.0 0.00 0.00 0.00 40 1011.7
20260831151406 92 75 11.0 14.0 0.00 0.00 0.00 41 1011.7
20260831151204 92 65 9.0 15.0 0.00 0.00 0.00 41 1011.7
20260831151108 92 97 9.0 15.0 0.00 0.00 0.00 41 1011.7
20260831151005 92 112 9.0 15.0 0.00 0.00 0.00 43 1011.6
20260831150806 92 79 10.0 15.0 0.00 0.00 0.00 43 1011.7
20260831150704 92 77 11.0 15.0 0.00 0.00 0.00 43 1011.7
20260831150604 92 66 12.0 15.0 0.00 0.00 0.00 43 1011.7
20260831150506 92 74 9.0 15.0 0.00 0.00 0.00 43 1011.7
20260831150404 92 82 11.0 15.0 0.00 0.00 0.00 43 1011.7
20260831150304 92 68 9.0 15.0 0.00 0.00 0.00 42 1011.7
20260831150207 92 78 11.0 15.0 0.00 0.00 0.00 42 1011.7
20260831150104 92 66 11.0 15.0 0.00 0.00 0.00 42 1011.7
20260831145906 92 78 7.0 14.0 0.00 0.00 0.00 42 1011.7
20260831145803 92 66 9.0 14.0 0.00 0.00 0.00 43 1011.7
20260831145704 92 76 13.0 15.0 0.00 0.00 0.00 42 1011.7
20260831145606 92 93 8.0 14.0 0.00 0.00 0.00 41 1011.7
20260831145504 92 50 6.0 15.0 0.00 0.00 0.00 42 1011.7
20260831145404 92 78 12.0 15.0 0.00 0.00 0.00 43 1011.7
20260831145306 92 72 10.0 15.0 0.00 0.00 0.00 42 1011.7
20260831145204 92 84 11.0 15.0 0.00 0.00 0.00 42 1011.7
20260831145104 92 96 14.0 15.0 0.00 0.00 0.00 41 1011.7
20260831145007 92 80 10.0 15.0 0.00 0.00 0.00 41 1011.7
20260831144904 92 98 10.0 15.0 0.00 0.00 0.00 43 1011.7
20260831144805 92 77 8.0 15.0 0.00 0.00 0.00 42 1011.6
20260831144706 92 95 8.0 15.0 0.00 0.00 0.00 42 1011.6
20260831144504 92 85 10.0 13.0 0.00 0.00 0.00 42 1011.7
20260831144407 92 74 5.0 13.0 0.00 0.00 0.00 42 1011.7
20260831144204 93 74 5.0 13.0 0.00 0.00 0.00 42 1011.6
20260831144006 93 109 10.0 15.0 0.00 0.00 0.00 42 1011.6
20260831143904 93 120 7.0 15.0 0.00 0.00 0.00 41 1011.7
20260831143806 93 94 7.0 15.0 0.00 0.00 0.00 41 1011.6
20260831143704 93 99 10.0 15.0 0.00 0.00 0.00 42 1011.6
20260831143604 93 79 11.0 15.0 0.00 0.00 0.00 41 1011.6
20260831143404 93 54 11.0 15.0 0.00 0.00 0.00 40 1011.6
20260831143206 93 34 6.0 15.0 0.00 0.00 0.00 40 1011.6
20260831143104 93 69 9.0 15.0 0.00 0.00 0.00 40 1011.6
20260831143005 93 67 12.0 15.0 0.00 0.00 0.00 40 1011.6
20260831142906 93 69 12.0 15.0 0.00 0.00 0.00 40 1011.6
20260831142804 93 59 4.0 15.0 0.00 0.00 0.00 40 1011.6
20260831142704 93 60 14.0 15.0 0.00 0.00 0.00 41 1011.5
20260831142607 93 93 11.0 15.0 0.00 0.00 0.00 41 1011.6
20260831142404 93 74 11.0 15.0 0.00 0.00 0.00 40 1011.5
20260831142306 93 48 6.0 15.0 0.00 0.00 0.00 39 1011.5
20260831142104 93 28 6.0 17.0 0.00 0.00 0.00 41 1011.5
20260831142008 93 84 14.0 17.0 0.00 0.00 0.00 38 1011.5
20260831141904 93 28 10.0 17.0 0.00 0.00 0.00 38 1011.5
20260831141804 93 38 14.0 17.0 0.00 0.00 0.00 39 1011.5
20260831141706 93 51 6.0 17.0 0.00 0.00 0.00 38 1011.5
20260831141604 93 82 6.0 17.0 0.00 0.00 0.00 39 1011.5
20260831141506 93 37 5.0 17.0 0.00 0.00 0.00 38 1011.5
20260831141406 94 78 15.0 17.0 0.00 0.00 0.00 39 1011.5
20260831141304 94 86 7.0 17.0 0.00 0.00 0.00 38 1011.5
20260831141204 94 78 12.0 17.0 0.00 0.00 0.00 39 1011.4
20260831141107 94 68 12.0 16.0 0.00 0.00 0.00 40 1011.5
20260831141004 94 86 16.0 16.0 0.00 0.00 0.00 39 1011.4
20260831140903 94 32 8.0 13.0 0.00 0.00 0.00 38 1011.4
20260831140704 94 45 8.0 13.0 0.00 0.00 0.00 38 1011.4
20260831140603 94 50 9.0 13.0 0.00 0.00 0.00 37 1011.4
20260831140304 94 57 10.0 14.0 0.00 0.00 0.00 36 1011.5
20260831140206 95 74 3.0 14.0 0.00 0.00 0.00 37 1011.5
20260831140116 95 71 9.0 14.0 0.00 0.00 0.00 38 1011.5
20260831140007 95 80 11.0 14.0 0.00 0.00 0.00 38 1011.6
20260831135804 95 69 11.0 11.0 0.00 0.00 0.00 36 1011.5
20260831135704 95 37 7.0 11.0 0.00 0.00 0.00 36 1011.6
20260831135607 95 38 6.0 10.0 0.00 0.00 0.00 34 1011.5
20260831135504 95 32 8.0 10.0 0.00 0.00 0.00 33 1011.5
20260831135404 95 34 5.0 10.0 0.00 0.00 0.00 34 1011.6
20260831135307 95 329 3.0 10.0 0.00 0.00 0.00 33 1011.6
20260831135204 95 36 9.0 10.0 0.00 0.00 0.00 34 1011.6
20260831135103 95 30 8.0 10.0 0.00 0.00 0.00 35 1011.6
20260831135008 95 28 1.0 10.0 0.00 0.00 0.00 35 1011.6
20260831134903 95 314 2.0 10.0 0.00 0.00 0.00 33 1011.5
20260831134804 95 69 3.0 10.0 0.00 0.00 0.00 35 1011.5
20260831134706 95 81 5.0 10.0 0.00 0.00 0.00 34 1011.6
20260831134605 95 84 10.0 10.0 0.00 0.00 0.00 33 1011.6
20260831134504 95 115 1.0 7.0 0.00 0.00 0.00 33 1011.6
20260831134406 95 72 4.0 7.0 0.00 0.00 0.00 32 1011.6
20260831134304 95 30 1.0 7.0 0.00 0.00 0.00 33 1011.6
20260831134204 95 33 3.0 7.0 0.00 0.00 0.00 32 1011.6
20260831134106 95 326 2.0 6.0 0.00 0.00 0.00 33 1011.6
20260831134005 95 346 3.0 6.0 0.00 0.00 0.00 33 1011.7
20260831133904 95 342 3.0 8.0 0.00 0.00 0.00 33 1011.7
20260831133806 95 12 1.0 8.0 0.00 0.00 0.00 33 1011.7
20260831133705 95 347 4.0 8.0 0.00 0.00 0.00 33 1011.7
20260831133507 95 344 4.0 9.0 0.00 0.00 0.00 33 1011.7
20260831133404 95 329 2.0 9.0 0.00 0.00 0.00 33 1011.7
20260831133303 95 301 4.0 9.0 0.00 0.00 0.00 34 1011.7
20260831133206 95 32 4.0 9.0 0.00 0.00 0.00 32 1011.7
20260831133104 95 36 2.0 9.0 0.00 0.00 0.00 33 1011.7
20260831133008 95 36 6.0 9.0 0.00 0.00 0.00 34 1011.7
20260831132907 95 29 8.0 9.0 0.00 0.00 0.00 33 1011.7
20260831132804 95 30 4.0 9.0 0.00 0.00 0.00 32 1011.7
20260831132703 95 32 6.0 9.0 0.00 0.00 0.00 33 1011.7
20260831132607 95 35 6.0 9.0 0.00 0.00 0.00 31 1011.7
20260831132504 95 38 8.0 9.0 0.00 0.00 0.00 34 1011.8
20260831132404 95 43 7.0 9.0 0.00 0.00 0.00 32 1011.7
20260831132307 95 332 6.0 9.0 0.00 0.00 0.00 31 1011.8
20260831132204 95 34 5.0 9.0 0.00 0.00 0.00 32 1011.8
20260831132007 95 79 2.0 9.0 0.00 0.00 0.00 33 1011.8
20260831131904 95 5 1.0 9.0 0.00 0.00 0.00 35 1011.8
20260831131706 94 355 5.0 9.0 0.00 0.00 0.00 36 1011.8
20260831131604 94 34 9.0 9.0 0.00 0.00 0.00 34 1011.8
20260831131406 94 355 6.0 8.0 0.00 0.00 0.00 33 1011.8
20260831131305 94 272 3.0 8.0 0.00 0.00 0.00 33 1011.8
20260831131107 94 329 3.0 8.0 0.00 0.00 0.00 31 1011.9
20260831131006 94 161 1.0 8.0 0.00 0.00 0.00 32 1011.8
20260831130807 94 40 1.0 8.0 0.00 0.00 0.00 32 1011.9
20260831130703 94 344 4.0 8.0 0.00 0.00 0.00 35 1011.9
20260831130507 94 5 5.0 8.0 0.00 0.00 0.00 33 1011.8
20260831130405 94 41 6.0 8.0 0.00 0.00 0.00 34 1011.9
20260831130206 94 9 3.0 9.0 0.00 0.00 0.00 32 1011.9
20260831130008 94 13 2.0 9.0 0.00 0.00 0.00 34 1011.9
20260831125906 94 44 1.0 9.0 0.00 0.00 0.00 33 1011.9
20260831125803 94 44 2.0 9.0 0.00 0.00 0.00 34 1011.9
20260831125704 93 44 1.0 9.0 0.00 0.00 0.00 34 1011.9
20260831125606 93 44 1.0 9.0 0.00 0.00 0.00 34 1011.9
20260831125505 93 5 2.0 9.0 0.00 0.00 0.00 33 1011.9
20260831125404 93 32 2.0 9.0 0.00 0.00 0.00 34 1012.0
20260831125306 93 14 6.0 9.0 0.00 0.00 0.00 32 1012.0
20260831125203 93 54 2.0 11.0 0.00 0.00 0.00 32 1011.9
20260831125103 94 30 5.0 11.0 0.00 0.00 0.00 33 1011.9
20260831125008 94 24 5.0 11.0 0.00 0.00 0.00 32 1012.0
20260831124804 94 54 6.0 11.0 0.00 0.00 0.00 33 1012.0
20260831124707 94 35 6.0 11.0 0.00 0.00 0.00 32 1012.0
20260831124504 94 90 6.0 11.0 0.00 0.00 0.00 31 1012.0
20260831124407 94 61 9.0 11.0 0.00 0.00 0.00 33 1012.0
20260831124304 94 47 6.0 11.0 0.00 0.00 0.00 33 1012.0
20260831124204 94 42 10.0 10.0 0.00 0.00 0.00 32 1012.0
20260831124106 95 31 4.0 10.0 0.00 0.00 0.00 32 1012.1
20260831124004 95 27 9.0 10.0 0.00 0.00 0.00 32 1012.1
20260831123903 95 22 3.0 9.0 0.00 0.00 0.00 34 1012.1
20260831123807 94 338 4.0 9.0 0.00 0.00 0.00 36 1012.1
20260831123705 94 355 5.0 9.0 0.00 0.00 0.00 35 1012.1
20260831123604 94 315 7.0 9.0 0.00 0.00 0.00 33 1012.1
20260831123507 94 355 6.0 9.0 0.00 0.00 0.00 34 1012.1
20260831123403 94 342 9.0 9.0 0.00 0.00 0.00 32 1012.1
20260831123303 94 17 6.0 9.0 0.00 0.00 0.00 33 1012.2
20260831123206 94 348 8.0 9.0 0.00 0.00 0.00 36 1012.1
20260831123103 94 5 6.0 8.0 0.00 0.00 0.00 35 1012.1
20260831123005 94 317 5.0 10.0 0.00 0.00 0.00 33 1012.1
20260831122906 94 62 5.0 10.0 0.00 0.00 0.00 34 1012.1
20260831122804 93 31 8.0 10.0 0.00 0.00 0.00 34 1012.2
20260831122703 93 342 6.0 10.0 0.00 0.00 0.00 34 1012.2
20260831122606 93 19 5.0 10.0 0.00 0.00 0.00 34 1012.1
20260831122504 93 46 4.0 10.0 0.00 0.00 0.00 34 1012.2
20260831122403 93 292 4.0 10.0 0.00 0.00 0.00 34 1012.2
20260831122306 93 65 1.0 10.0 0.00 0.00 0.00 33 1012.1
20260831122203 93 84 3.0 10.0 0.00 0.00 0.00 33 1012.2
20260831122104 93 47 5.0 10.0 0.00 0.00 0.00 32 1012.2
20260831122007 93 31 8.0 9.0 0.00 0.00 0.00 32 1012.2
20260831121904 93 144 4.0 7.0 0.00 0.00 0.00 32 1012.2
20260831121803 93 360 1.0 10.0 0.00 0.00 0.00 34 1012.2
20260831121707 93 5 3.0 10.0 0.00 0.00 0.00 33 1012.2
20260831121604 93 67 4.0 10.0 0.00 0.00 0.00 34 1012.3
20260831121504 93 92 2.0 10.0 0.00 0.00 0.00 34 1012.2
20260831121406 93 92 3.0 10.0 0.00 0.00 0.00 35 1012.2
20260831121304 93 24 5.0 10.0 0.00 0.00 0.00 36 1012.3
20260831121204 93 80 5.0 10.0 0.00 0.00 0.00 33 1012.2
20260831121006 93 53 6.0 10.0 0.00 0.00 0.00 35 1012.3
20260831120903 93 77 5.0 10.0 0.00 0.00 0.00 33 1012.3
20260831120806 94 34 7.0 10.0 0.00 0.00 0.00 32 1012.2
20260831120604 94 37 7.0 10.0 0.00 0.00 0.00 37 1012.3
20260831120507 94 38 5.0 10.0 0.00 0.00 0.00 35 1012.3
20260831120404 93 355 3.0 12.0 0.00 0.00 0.00 35 1012.3
20260831120303 93 323 5.0 12.0 0.00 0.00 0.00 36 1012.3
20260831120207 93 313 5.0 12.0 0.00 0.00 0.00 37 1012.3
20260831120117 93 321 3.0 12.0 0.00 0.00 0.00 33 1012.3
20260831120007 93 21 5.0 12.0 0.00 0.00 0.00 33 1012.3
20260831115906 93 355 9.0 12.0 0.00 0.00 0.00 34 1012.3
20260831115804 93 17 4.0 12.0 0.00 0.00 0.00 33 1012.3
20260831115606 94 34 8.0 12.0 0.00 0.00 0.00 35 1012.3
20260831115504 94 24 7.0 12.0 0.00 0.00 0.00 33 1012.3
20260831115404 94 58 4.0 9.0 0.00 0.00 0.00 35 1012.3
20260831115306 94 19 3.0 9.0 0.00 0.00 0.00 36 1012.4
20260831115205 94 37 7.0 9.0 0.00 0.00 0.00 34 1012.3
20260831115104 94 37 9.0 9.0 0.00 0.00 0.00 35 1012.4
20260831114904 94 315 5.0 8.0 0.00 0.00 0.00 36 1012.3
20260831114804 94 9 3.0 9.0 0.00 0.00 0.00 36 1012.3
20260831114604 93 351 2.0 10.0 0.00 0.00 0.00 38 1012.3
20260831114504 93 351 3.0 10.0 0.00 0.00 0.00 36 1012.4
20260831114406 93 351 2.0 10.0 0.00 0.00 0.00 39 1012.4
20260831114303 93 329 4.0 10.0 0.00 0.00 0.00 35 1012.4
20260831114204 93 317 5.0 10.0 0.00 0.00 0.00 37 1012.4
20260831114107 93 38 1.0 10.0 0.00 0.00 0.00 38 1012.3
20260831114005 92 36 7.0 10.0 0.00 0.00 0.00 39 1012.4
20260831113904 92 26 6.0 10.0 0.00 0.00 0.00 36 1012.4
20260831113806 92 19 4.0 10.0 0.00 0.00 0.00 38 1012.4
20260831113704 92 38 6.0 9.0 0.00 0.00 0.00 37 1012.4
20260831113605 92 90 5.0 8.0 0.00 0.00 0.00 35 1012.5
20260831113507 92 73 0.0 8.0 0.00 0.00 0.00 36 1012.4
20260831113404 92 57 4.0 8.0 0.00 0.00 0.00 37 1012.5
20260831113304 92 50 5.0 8.0 0.00 0.00 0.00 35 1012.5
20260831113206 92 44 5.0 8.0 0.00 0.00 0.00 36 1012.5
20260831112907 92 47 0.0 8.0 0.00 0.00 0.00 36 1012.5
20260831112804 92 30 3.0 8.0 0.00 0.00 0.00 35 1012.5
20260831112607 92 34 6.0 7.0 0.00 0.00 0.00 39 1012.5
20260831112504 92 24 5.0 7.0 0.00 0.00 0.00 38 1012.6
20260831112404 92 343 1.0 5.0 0.00 0.00 0.00 38 1012.5
20260831112309 92 35 3.0 8.0 0.00 0.00 0.00 39 1012.6
20260831112103 91 355 2.0 10.0 0.00 0.00 0.00 36 1012.5
20260831112007 91 343 1.0 10.0 0.00 0.00 0.00 38 1012.6
20260831111903 91 288 1.0 10.0 0.00 0.00 0.00 36 1012.6
20260831111803 92 288 2.0 10.0 0.00 0.00 0.00 36 1012.6
20260831111706 92 281 1.0 10.0 0.00 0.00 0.00 36 1012.6
20260831111504 92 288 1.0 10.0 0.00 0.00 0.00 38 1012.6
20260831111204 92 281 4.0 10.0 0.00 0.00 0.00 39 1012.6
20260831111106 92 320 8.0 10.0 0.00 0.00 0.00 41 1012.6
20260831111005 91 360 5.0 9.0 0.00 0.00 0.00 41 1012.6
20260831110904 91 320 7.0 9.0 0.00 0.00 0.00 40 1012.6
20260831110806 91 348 6.0 9.0 0.00 0.00 0.00 40 1012.6
20260831110704 91 55 2.0 9.0 0.00 0.00 0.00 39 1012.6
20260831110507 91 10 4.0 9.0 0.00 0.00 0.00 39 1012.7
20260831110404 90 360 3.0 9.0 0.00 0.00 0.00 41 1012.7
20260831110303 90 5 2.0 9.0 0.00 0.00 0.00 41 1012.7
20260831110207 90 11 7.0 9.0 0.00 0.00 0.00 38 1012.7
20260831110104 90 327 6.0 7.0 0.00 0.00 0.00 38 1012.6
20260831110007 90 236 2.0 7.0 0.00 0.00 0.00 38 1012.7
20260831105906 90 339 1.0 9.0 0.00 0.00 0.00 40 1012.7
20260831105704 90 360 3.0 9.0 0.00 0.00 0.00 38 1012.7
20260831105606 91 342 3.0 9.0 0.00 0.00 0.00 39 1012.7
20260831105505 91 305 2.0 9.0 0.00 0.00 0.00 38 1012.8
20260831105308 91 290 5.0 9.0 0.00 0.00 0.00 37 1012.7
20260831105204 91 284 3.0 9.0 0.00 0.00 0.00 40 1012.8
20260831105104 91 348 5.0 9.0 0.00 0.00 0.00 37 1012.7
20260831105008 91 348 5.0 9.0 0.00 0.00 0.00 42 1012.8
20260831104905 91 360 6.0 9.0 0.00 0.00 0.00 41 1012.7
20260831104804 91 355 2.0 6.0 0.00 0.00 0.00 40 1012.7
20260831104707 91 321 1.0 6.0 0.00 0.00 0.00 39 1012.8
20260831104604 91 338 5.0 6.0 0.00 0.00 0.00 41 1012.8
20260831104504 91 5 2.0 5.0 0.00 0.00 0.00 39 1012.8
20260831104407 91 92 0.0 5.0 0.00 0.00 0.00 38 1012.8
20260831104304 91 321 1.0 7.0 0.00 0.00 0.00 38 1012.8
20260831104203 91 321 1.0 9.0 0.00 0.00 0.00 37 1012.8
20260831104108 91 321 2.0 9.0 0.00 0.00 0.00 42 1012.8
20260831103905 90 22 3.0 9.0 0.00 0.00 0.00 38 1012.8
20260831103807 90 161 0.0 9.0 0.00 0.00 0.00 37 1012.9
20260831103703 90 161 2.0 9.0 0.00 0.00 0.00 40 1012.9
20260831103603 90 34 2.0 9.0 0.00 0.00 0.00 40 1012.9
20260831103403 90 355 3.0 9.0 0.00 0.00 0.00 43 1012.9
20260831103305 90 346 5.0 9.0 0.00 0.00 0.00 43 1012.9
20260831103206 90 332 6.0 8.0 0.00 0.00 0.00 41 1012.9
20260831103103 90 29 2.0 8.0 0.00 0.00 0.00 39 1012.9
20260831103005 90 29 1.0 8.0 0.00 0.00 0.00 41 1012.9
20260831102906 90 25 6.0 8.0 0.00 0.00 0.00 42 1013.0
20260831102704 90 5 8.0 8.0 0.00 0.00 0.00 41 1013.0
20260831102606 90 27 4.0 7.0 0.00 0.00 0.00 42 1013.0
20260831102504 90 317 1.0 7.0 0.00 0.00 0.00 40 1012.9
20260831102403 90 317 2.0 10.0 0.00 0.00 0.00 41 1013.0
20260831102306 90 317 2.0 10.0 0.00 0.00 0.00 41 1013.0
20260831102203 90 322 4.0 10.0 0.00 0.00 0.00 42 1013.0
20260831102008 90 293 3.0 10.0 0.00 0.00 0.00 41 1013.0
20260831101904 90 323 5.0 10.0 0.00 0.00 0.00 42 1013.0
20260831101803 90 24 1.0 10.0 0.00 0.00 0.00 43 1013.0
20260831101706 89 18 3.0 10.0 0.00 0.00 0.00 43 1013.0
20260831101604 89 20 6.0 10.0 0.00 0.00 0.00 44 1013.0
20260831101503 89 321 5.0 10.0 0.00 0.00 0.00 44 1013.0
20260831101406 89 342 5.0 8.0 0.00 0.00 0.00 44 1013.0
20260831101303 89 337 5.0 8.0 0.00 0.00 0.00 43 1013.0
20260831101203 89 38 4.0 8.0 0.00 0.00 0.00 45 1013.0
20260831101004 89 26 7.0 8.0 0.00 0.00 0.00 43 1013.0
20260831100903 89 27 5.0 8.0 0.00 0.00 0.00 43 1013.0
20260831100806 89 24 4.0 6.0 0.00 0.00 0.00 43 1013.0
20260831100703 89 88 3.0 6.0 0.00 0.00 0.00 44 1013.0
20260831100605 89 63 2.0 6.0 0.00 0.00 0.00 43 1013.0
20260831100506 89 65 2.0 6.0 0.00 0.00 0.00 43 1013.0
20260831100404 89 65 2.0 6.0 0.00 0.00 0.00 43 1013.0
20260831100304 89 22 4.0 6.0 0.00 0.00 0.00 47 1013.1
20260831100204 88 350 5.0 6.0 0.00 0.00 0.00 44 1013.1
20260831100129 88 337 4.0 6.0 0.00 0.00 0.00 43 1013.1
20260831100007 88 39 2.0 6.0 0.00 0.00 0.00 43 1013.1
20260831095904 88 313 1.0 6.0 0.00 0.00 0.00 43 1013.1
20260831095806 88 313 2.0 6.0 0.00 0.00 0.00 46 1013.2
20260831095703 88 350 5.0 7.0 0.00 0.00 0.00 45 1013.1
20260831095604 88 5 2.0 7.0 0.00 0.00 0.00 44 1013.1
20260831095506 88 151 1.0 7.0 0.00 0.00 0.00 43 1013.1
20260831095404 88 5 2.0 7.0 0.00 0.00 0.00 43 1013.1
20260831095207 88 5 1.0 7.0 0.00 0.00 0.00 43 1013.2
20260831095104 88 5 3.0 7.0 0.00 0.00 0.00 44 1013.1
20260831095004 88 355 3.0 7.0 0.00 0.00 0.00 43 1013.1
20260831094906 88 5 4.0 7.0 0.00 0.00 0.00 43 1013.1
20260831094803 88 38 6.0 7.0 0.00 0.00 0.00 43 1013.1
20260831094703 88 24 6.0 7.0 0.00 0.00 0.00 44 1013.1
20260831094606 88 17 6.0 7.0 0.00 0.00 0.00 43 1013.2
20260831094505 88 62 1.0 7.0 0.00 0.00 0.00 43 1013.1
20260831094403 88 31 4.0 7.0 0.00 0.00 0.00 45 1013.1
20260831094306 88 320 1.0 7.0 0.00 0.00 0.00 43 1013.2
20260831094103 88 296 2.0 7.0 0.00 0.00 0.00 45 1013.2
20260831094008 88 283 4.0 7.0 0.00 0.00 0.00 45 1013.2
20260831093903 88 329 3.0 7.0 0.00 0.00 0.00 47 1013.2
20260831093803 88 325 4.0 7.0 0.00 0.00 0.00 45 1013.2
20260831093707 88 338 6.0 7.0 0.00 0.00 0.00 46 1013.2
20260831093603 88 346 5.0 7.0 0.00 0.00 0.00 48 1013.2
20260831093504 88 333 6.0 7.0 0.00 0.00 0.00 46 1013.2
20260831093106 87 296 3.0 5.0 0.00 0.00 0.00 46 1013.2
20260831092903 87 360 4.0 5.0 0.00 0.00 0.00 48 1013.2
20260831092807 87 360 4.0 5.0 0.00 0.00 0.00 47 1013.3
20260831092604 87 343 2.0 6.0 0.00 0.00 0.00 46 1013.3
20260831092507 87 330 2.0 6.0 0.00 0.00 0.00 48 1013.3
20260831092404 87 34 4.0 6.0 0.00 0.00 0.00 47 1013.3
20260831092306 87 38 2.0 6.0 0.00 0.00 0.00 48 1013.3
20260831092103 87 285 2.0 6.0 0.00 0.00 0.00 47 1013.4
20260831092004 87 285 1.0 6.0 0.00 0.00 0.00 46 1013.4
20260831091907 87 327 0.0 6.0 0.00 0.00 0.00 46 1013.4
20260831091607 87 309 4.0 6.0 0.00 0.00 0.00 47 1013.4
20260831091504 87 302 5.0 6.0 0.00 0.00 0.00 47 1013.4
20260831091403 87 335 4.0 6.0 0.00 0.00 0.00 46 1013.4
20260831091306 87 288 4.0 6.0 0.00 0.00 0.00 45 1013.3
20260831091203 87 284 4.0 7.0 0.00 0.00 0.00 47 1013.4
20260831091103 87 338 3.0 7.0 0.00 0.00 0.00 48 1013.4
20260831090905 87 313 3.0 7.0 0.00 0.00 0.00 48 1013.4
20260831090803 87 300 2.0 7.0 0.00 0.00 0.00 48 1013.4
20260831090706 86 298 3.0 7.0 0.00 0.00 0.00 49 1013.4
20260831090603 86 17 2.0 7.0 0.00 0.00 0.00 48 1013.4
20260831090504 86 25 6.0 8.0 0.00 0.00 0.00 48 1013.4
20260831090406 86 75 1.0 8.0 0.00 0.00 0.00 47 1013.4
20260831090303 86 29 3.0 9.0 0.00 0.00 0.00 47 1013.4
20260831090203 86 355 4.0 9.0 0.00 0.00 0.00 48 1013.4
20260831090106 86 258 2.0 9.0 0.00 0.00 0.00 47 1013.4
20260831085807 86 302 2.0 9.0 0.00 0.00 0.00 47 1013.4
20260831085603 86 291 4.0 9.0 0.00 0.00 0.00 49 1013.4
20260831085506 86 321 7.0 9.0 0.00 0.00 0.00 50 1013.4
20260831085405 86 341 6.0 9.0 0.00 0.00 0.00 50 1013.4
20260831085306 86 329 6.0 9.0 0.00 0.00 0.00 49 1013.4
20260831085206 86 355 3.0 7.0 0.00 0.00 0.00 48 1013.4
20260831085104 86 292 1.0 7.0 0.00 0.00 0.00 47 1013.4
20260831085004 86 338 2.0 7.0 0.00 0.00 0.00 49 1013.5
20260831084906 86 308 2.0 7.0 0.00 0.00 0.00 49 1013.4
20260831084804 86 310 4.0 7.0 0.00 0.00 0.00 49 1013.4
20260831084704 86 5 4.0 6.0 0.00 0.00 0.00 48 1013.4
20260831084606 86 30 5.0 6.0 0.00 0.00 0.00 48 1013.4
20260831084504 86 34 4.0 6.0 0.00 0.00 0.00 49 1013.4
20260831084404 86 360 6.0 6.0 0.00 0.00 0.00 49 1013.4
20260831084306 86 337 4.0 5.0 0.00 0.00 0.00 48 1013.4
20260831084103 86 29 2.0 7.0 0.00 0.00 0.00 50 1013.4
20260831083803 86 20 4.0 7.0 0.00 0.00 0.00 48 1013.4
20260831083707 86 322 3.0 7.0 0.00 0.00 0.00 47 1013.4
20260831083603 85 24 1.0 7.0 0.00 0.00 0.00 47 1013.4
20260831083504 85 22 2.0 7.0 0.00 0.00 0.00 47 1013.4
20260831083407 85 30 0.0 7.0 0.00 0.00 0.00 47 1013.5
20260831083303 85 30 1.0 7.0 0.00 0.00 0.00 48 1013.5
20260831083106 85 333 5.0 7.0 0.00 0.00 0.00 47 1013.4
20260831083004 85 277 0.0 7.0 0.00 0.00 0.00 47 1013.5
20260831082904 85 277 2.0 7.0 0.00 0.00 0.00 47 1013.5
20260831082806 85 290 3.0 7.0 0.00 0.00 0.00 47 1013.4
20260831082704 85 313 5.0 7.0 0.00 0.00 0.00 47 1013.4
20260831082603 85 25 3.0 7.0 0.00 0.00 0.00 47 1013.4
20260831082507 85 28 3.0 7.0 0.00 0.00 0.00 47 1013.4
20260831082306 85 333 1.0 7.0 0.00 0.00 0.00 48 1013.4
20260831082206 84 324 4.0 7.0 0.00 0.00 0.00 50 1013.4
20260831082004 84 344 5.0 7.0 0.00 0.00 0.00 51 1013.4
20260831081906 84 355 5.0 6.0 0.00 0.00 0.00 49 1013.4
20260831081703 84 360 1.0 5.0 0.00 0.00 0.00 49 1013.4
20260831081607 84 333 4.0 5.0 0.00 0.00 0.00 49 1013.3
20260831081504 84 5 1.0 5.0 0.00 0.00 0.00 50 1013.4
20260831081403 84 355 3.0 5.0 0.00 0.00 0.00 50 1013.4
20260831081306 84 32 1.0 5.0 0.00 0.00 0.00 50 1013.4
20260831081203 84 18 3.0 5.0 0.00 0.00 0.00 50 1013.3
20260831081008 84 322 2.0 5.0 0.00 0.00 0.00 49 1013.3
20260831080903 84 322 2.0 5.0 0.00 0.00 0.00 48 1013.3
20260831080804 84 322 3.0 5.0 0.00 0.00 0.00 50 1013.3
20260831080604 83 305 3.0 4.0 0.00 0.00 0.00 48 1013.3
20260831080506 83 303 2.0 4.0 0.00 0.00 0.00 48 1013.3
20260831080404 83 303 2.0 4.0 0.00 0.00 0.00 47 1013.3
20260831080205 83 360 2.0 4.0 0.00 0.00 0.00 49 1013.3
20260831080116 83 360 2.0 5.0 0.00 0.00 0.00 49 1013.3
20260831080007 83 360 2.0 5.0 0.00 0.00 0.00 50 1013.3
20260831075906 83 360 2.0 5.0 0.00 0.00 0.00 49 1013.3
20260831075804 83 360 3.0 5.0 0.00 0.00 0.00 48 1013.3
20260831075702 83 360 2.0 5.0 0.00 0.00 0.00 50 1013.3
20260831075606 82 360 3.0 5.0 0.00 0.00 0.00 50 1013.3
20260831075503 82 360 3.0 5.0 0.00 0.00 0.00 50 1013.3
20260831075404 82 360 3.0 5.0 0.00 0.00 0.00 50 1013.2
20260831075306 82 360 0.0 5.0 0.00 0.00 0.00 51 1013.3
20260831075202 82 360 1.0 5.0 0.00 0.00 0.00 51 1013.2
20260831075007 82 355 1.0 5.0 0.00 0.00 0.00 52 1013.2
20260831074805 82 313 2.0 5.0 0.00 0.00 0.00 50 1013.2
20260831074706 82 302 2.0 5.0 0.00 0.00 0.00 50 1013.2
20260831074505 82 344 2.0 5.0 0.00 0.00 0.00 51 1013.2
20260831074204 81 360 2.0 5.0 0.00 0.00 0.00 48 1013.1
20260831074106 81 360 1.0 5.0 0.00 0.00 0.00 50 1013.1
20260831074005 81 360 2.0 5.0 0.00 0.00 0.00 51 1013.1
20260831073806 81 327 3.0 5.0 0.00 0.00 0.00 53 1013.0
20260831073703 81 13 2.0 5.0 0.00 0.00 0.00 53 1013.0
20260831073604 81 27 3.0 5.0 0.00 0.00 0.00 52 1013.0
20260831073507 81 27 1.0 5.0 0.00 0.00 0.00 52 1013.0
20260831073303 81 360 3.0 5.0 0.00 0.00 0.00 53 1013.0
20260831073206 81 331 3.0 5.0 0.00 0.00 0.00 55 1013.0
20260831073006 80 11 2.0 5.0 0.00 0.00 0.00 54 1013.0
20260831072802 80 5 5.0 5.0 0.00 0.00 0.00 57 1013.0
20260831072702 80 32 3.0 4.0 0.00 0.00 0.00 58 1013.0
20260831072605 80 37 4.0 4.0 0.00 0.00 0.00 58 1013.0
20260831072503 80 54 3.0 4.0 0.00 0.00 0.00 58 1013.0
20260831072404 79 44 2.0 4.0 0.00 0.00 0.00 59 1013.0
20260831072306 79 57 2.0 4.0 0.00 0.00 0.00 59 1013.0
20260831072204 79 9 3.0 4.0 0.00 0.00 0.00 60 1013.0
20260831072104 79 188 3.0 4.0 0.00 0.00 0.00 61 1013.0
20260831071902 79 188 3.0 4.0 0.00 0.00 0.00 61 1013.0
20260831071803 79 188 2.0 4.0 0.00 0.00 0.00 60 1013.0
20260831071706 78 188 3.0 4.0 0.00 0.00 0.00 60 1013.0
20260831071604 78 188 1.0 3.0 0.00 0.00 0.00 60 1013.1
20260831071406 78 188 3.0 3.0 0.00 0.00 0.00 63 1013.0
20260831071203 77 188 1.0 2.0 0.00 0.00 0.00 64 1013.0
20260831071106 77 188 2.0 2.0 0.00 0.00 0.00 64 1013.1
20260831071005 77 188 1.0 2.0 0.00 0.00 0.00 64 1013.0
20260831070904 77 188 0.0 2.0 0.00 0.00 0.00 64 1013.0
20260831070807 77 188 2.0 2.0 0.00 0.00 0.00 65 1013.0
20260831070703 76 188 1.0 2.0 0.00 0.00 0.00 65 1013.0
20260831070604 76 188 0.0 2.0 0.00 0.00 0.00 66 1013.0
20260831070506 76 188 0.0 2.0 0.00 0.00 0.00 67 1013.0
20260831070404 76 188 0.0 2.0 0.00 0.00 0.00 67 1013.0
20260831070304 75 188 1.0 2.0 0.00 0.00 0.00 66 1013.0
20260831070206 75 188 1.0 1.0 0.00 0.00 0.00 66 1013.0
20260831070103 75 188 1.0 1.0 0.00 0.00 0.00 67 1013.0
20260831070007 75 188 0.0 1.0 0.00 0.00 0.00 67 1013.0
20260831065906 75 188 0.0 1.0 0.00 0.00 0.00 67 1013.0
20260831065802 75 188 0.0 1.0 0.00 0.00 0.00 67 1013.0
20260831065703 75 188 0.0 1.0 0.00 0.00 0.00 70 1013.0
20260831065606 75 188 0.0 1.0 0.00 0.00 0.00 70 1013.0
20260831065503 75 188 0.0 1.0 0.00 0.00 0.00 70 1013.0
20260831065403 74 188 0.0 1.0 0.00 0.00 0.00 70 1013.0
20260831065306 74 188 1.0 1.0 0.00 0.00 0.00 70 1013.1
20260831065202 74 188 0.0 1.0 0.00 0.00 0.00 70 1013.0
20260831065103 74 188 0.0 1.0 0.00 0.00 0.00 71 1013.1
20260831065007 74 188 0.0 1.0 0.00 0.00 0.00 71 1013.1
20260831064904 74 188 0.0 1.0 0.00 0.00 0.00 72 1013.0
20260831064705 73 188 0.0 1.0 0.00 0.00 0.00 72 1013.0
20260831064602 73 188 0.0 1.0 0.00 0.00 0.00 72 1013.0
20260831064503 73 188 0.0 1.0 0.00 0.00 0.00 72 1013.0
20260831064406 73 188 0.0 1.0 0.00 0.00 0.00 72 1013.0
20260831064203 73 188 1.0 1.0 0.00 0.00 0.00 72 1013.0
20260831064004 73 188 1.0 1.0 0.00 0.00 0.00 72 1013.0
20260831063904 73 188 0.0 0.0 0.00 0.00 0.00 73 1013.0
20260831063807 72 188 0.0 0.0 0.00 0.00 0.00 72 1013.0
20260831063705 72 188 0.0 0.0 0.00 0.00 0.00 72 1013.0
20260831063603 72 188 0.0 1.0 0.00 0.00 0.00 72 1013.0
20260831063507 72 188 0.0 1.0 0.00 0.00 0.00 73 1013.0
20260831063403 72 188 0.0 1.0 0.00 0.00 0.00 72 1013.1
20260831063304 72 188 0.0 1.0 0.00 0.00 0.00 73 1013.1
20260831063206 72 188 0.0 1.0 0.00 0.00 0.00 73 1013.1
20260831063104 72 188 0.0 1.0 0.00 0.00 0.00 74 1013.1
20260831063005 72 188 0.0 1.0 0.00 0.00 0.00 74 1013.0
20260831062906 72 188 0.0 1.0 0.00 0.00 0.00 74 1013.1
20260831062803 72 188 0.0 1.0 0.00 0.00 0.00 75 1013.0
20260831062703 71 188 0.0 1.0 0.00 0.00 0.00 75 1013.0
20260831062606 71 188 0.0 2.0 0.00 0.00 0.00 76 1013.0
20260831062504 71 188 1.0 2.0 0.00 0.00 0.00 76 1013.0
20260831062404 71 188 0.0 2.0 0.00 0.00 0.00 77 1013.0
20260831062306 70 188 0.0 2.0 0.00 0.00 0.00 77 1013.0
20260831062204 70 188 1.0 2.0 0.00 0.00 0.00 78 1013.0
20260831062104 70 188 0.0 2.0 0.00 0.00 0.00 78 1013.0
20260831062007 70 188 0.0 2.0 0.00 0.00 0.00 79 1013.0
20260831061902 70 188 0.0 2.0 0.00 0.00 0.00 80 1013.0
20260831061803 69 188 1.0 2.0 0.00 0.00 0.00 80 1013.0
20260831061706 69 188 0.0 2.0 0.00 0.00 0.00 81 1013.0
20260831061603 69 188 1.0 2.0 0.00 0.00 0.00 82 1013.0
20260831061503 69 188 1.0 2.0 0.00 0.00 0.00 83 1013.0
20260831061303 68 188 2.0 2.0 0.00 0.00 0.00 84 1013.1
20260831061204 68 188 0.0 2.0 0.00 0.00 0.00 85 1013.0
20260831061106 68 188 1.0 2.0 0.00 0.00 0.00 87 1013.1
20260831061003 67 188 2.0 2.0 0.00 0.00 0.00 87 1013.0
20260831060806 67 188 0.0 2.0 0.00 0.00 0.00 88 1013.0
20260831060604 66 188 2.0 2.0 0.00 0.00 0.00 90 1013.0
20260831060506 66 188 1.0 2.0 0.00 0.00 0.00 91 1013.0
20260831060304 65 188 2.0 2.0 0.00 0.00 0.00 92 1013.0
20260831060115 65 188 1.0 2.0 0.00 0.00 0.00 92 1013.0
20260831060006 65 188 1.0 2.0 0.00 0.00 0.00 92 1013.0
20260831055804 65 188 1.0 2.0 0.00 0.00 0.00 93 1013.0
20260831055504 64 188 2.0 2.0 0.00 0.00 0.00 94 1013.0
20260831055404 64 188 1.0 2.0 0.00 0.00 0.00 94 1013.0
20260831055307 64 188 2.0 2.0 0.00 0.00 0.00 94 1012.9
20260831055204 63 188 1.0 2.0 0.00 0.00 0.00 94 1012.9
20260831055102 63 188 0.0 1.0 0.00 0.00 0.00 94 1013.0
20260831055006 63 188 0.0 1.0 0.00 0.00 0.00 94 1013.0
20260831054903 63 188 0.0 1.0 0.00 0.00 0.00 94 1013.0
20260831054803 63 188 0.0 0.0 0.00 0.00 0.00 95 1013.0
20260831054705 63 188 0.0 1.0 0.00 0.00 0.00 94 1012.9
20260831054604 62 188 0.0 1.0 0.00 0.00 0.00 94 1012.9
20260831054503 62 188 0.0 1.0 0.00 0.00 0.00 94 1012.9
20260831054406 62 188 0.0 1.0 0.00 0.00 0.00 94 1012.9
20260831054303 62 188 0.0 1.0 0.00 0.00 0.00 94 1012.8
20260831054204 62 188 0.0 2.0 0.00 0.00 0.00 94 1012.8
20260831054106 62 188 0.0 2.0 0.00 0.00 0.00 94 1012.9
20260831054005 62 188 0.0 2.0 0.00 0.00 0.00 94 1012.9
20260831053902 62 188 0.0 3.0 0.00 0.00 0.00 94 1013.0
20260831053806 62 188 0.0 3.0 0.00 0.00 0.00 94 1013.0
20260831053704 62 188 0.0 3.0 0.00 0.00 0.00 94 1013.0
20260831053604 62 188 0.0 3.0 0.00 0.00 0.00 94 1013.0
20260831053506 62 188 0.0 3.0 0.00 0.00 0.00 94 1013.0
20260831053404 61 188 0.0 3.0 0.00 0.00 0.00 94 1013.0
20260831053304 61 188 1.0 3.0 0.00 0.00 0.00 94 1013.0
20260831053206 61 188 0.0 3.0 0.00 0.00 0.00 94 1013.0
20260831053104 61 188 1.0 3.0 0.00 0.00 0.00 94 1012.9
20260831053004 61 188 1.0 3.0 0.00 0.00 0.00 94 1012.9
20260831052906 61 188 3.0 3.0 0.00 0.00 0.00 94 1012.9
20260831052804 61 188 1.0 3.0 0.00 0.00 0.00 94 1012.9
20260831052704 61 188 2.0 3.0 0.00 0.00 0.00 95 1012.9
20260831052605 61 188 2.0 3.0 0.00 0.00 0.00 95 1012.9
20260831052503 61 188 2.0 3.0 0.00 0.00 0.00 95 1012.8
20260831052402 61 188 2.0 3.0 0.00 0.00 0.00 95 1012.9
20260831052307 61 188 2.0 3.0 0.00 0.00 0.00 94 1012.9
20260831052203 61 188 2.0 3.0 0.00 0.00 0.00 94 1012.9
20260831052102 60 188 2.0 4.0 0.00 0.00 0.00 94 1012.9
20260831052006 60 188 1.0 4.0 0.00 0.00 0.00 94 1012.9
20260831051904 60 188 3.0 4.0 0.00 0.00 0.00 94 1012.9
20260831051705 60 188 2.0 4.0 0.00 0.00 0.00 95 1012.8
20260831051603 60 188 2.0 4.0 0.00 0.00 0.00 94 1012.8
20260831051504 60 188 2.0 4.0 0.00 0.00 0.00 94 1012.9
20260831051405 60 188 2.0 4.0 0.00 0.00 0.00 94 1012.8
20260831051303 60 188 2.0 4.0 0.00 0.00 0.00 94 1012.8
20260831051203 60 188 2.0 4.0 0.00 0.00 0.00 94 1012.8
20260831051105 60 188 4.0 4.0 0.00 0.00 0.00 94 1012.8
20260831051004 60 188 3.0 4.0 0.00 0.00 0.00 94 1012.8
20260831050805 60 188 3.0 4.0 0.00 0.00 0.00 94 1012.8
20260831050702 60 188 2.0 4.0 0.00 0.00 0.00 94 1012.8
20260831050603 60 188 3.0 4.0 0.00 0.00 0.00 94 1012.8
20260831050403 60 188 1.0 4.0 0.00 0.00 0.00 94 1012.7
20260831050302 60 188 2.0 4.0 0.00 0.00 0.00 94 1012.7
20260831050205 60 188 3.0 4.0 0.00 0.00 0.00 94 1012.7
20260831050104 60 188 3.0 4.0 0.00 0.00 0.00 94 1012.7
20260831050006 60 188 3.0 4.0 0.00 0.00 0.00 94 1012.7
20260831045906 60 188 2.0 4.0 0.00 0.00 0.00 94 1012.7
20260831045803 60 188 3.0 4.0 0.00 0.00 0.00 94 1012.7
20260831045702 60 188 3.0 4.0 0.00 0.00 0.00 94 1012.7
20260831045306 59 188 2.0 4.0 0.00 0.00 0.00 94 1012.7
20260831044903 59 188 2.0 3.0 0.00 0.00 0.00 94 1012.7
20260831044803 59 188 2.0 3.0 0.00 0.00 0.00 94 1012.7
20260831044705 59 188 1.0 3.0 0.00 0.00 0.00 94 1012.7
20260831044603 59 188 3.0 3.0 0.00 0.00 0.00 94 1012.7
20260831044504 59 188 1.0 3.0 0.00 0.00 0.00 94 1012.7
20260831044304 59 188 2.0 3.0 0.00 0.00 0.00 94 1012.7
20260831044203 59 188 2.0 3.0 0.00 0.00 0.00 94 1012.7
20260831044105 59 188 3.0 3.0 0.00 0.00 0.00 94 1012.7
20260831044004 59 188 2.0 3.0 0.00 0.00 0.00 94 1012.7
20260831043806 59 188 2.0 3.0 0.00 0.00 0.00 94 1012.7
20260831043603 59 188 2.0 3.0 0.00 0.00 0.00 94 1012.7
20260831043505 59 188 1.0 4.0 0.00 0.00 0.00 94 1012.7
20260831043402 59 188 2.0 4.0 0.00 0.00 0.00 94 1012.7
20260831043302 59 188 2.0 4.0 0.00 0.00 0.00 94 1012.7
20260831043207 59 188 2.0 4.0 0.00 0.00 0.00 94 1012.7
20260831043004 59 188 1.0 4.0 0.00 0.00 0.00 94 1012.7
20260831042905 59 188 0.0 4.0 0.00 0.00 0.00 93 1012.6
20260831042803 59 188 1.0 4.0 0.00 0.00 0.00 93 1012.6
20260831042703 59 188 2.0 4.0 0.00 0.00 0.00 93 1012.6
20260831042605 59 188 3.0 4.0 0.00 0.00 0.00 93 1012.6
20260831042503 59 188 3.0 3.0 0.00 0.00 0.00 93 1012.6
20260831042403 59 188 2.0 3.0 0.00 0.00 0.00 93 1012.6
20260831042307 59 188 2.0 3.0 0.00 0.00 0.00 93 1012.6
20260831042105 59 188 2.0 2.0 0.00 0.00 0.00 93 1012.6
20260831042008 59 188 2.0 2.0 0.00 0.00 0.00 93 1012.6
20260831041802 59 188 2.0 2.0 0.00 0.00 0.00 93 1012.7
20260831041706 59 188 2.0 2.0 0.00 0.00 0.00 93 1012.6
20260831041503 59 188 1.0 2.0 0.00 0.00 0.00 93 1012.6
20260831041302 59 188 0.0 1.0 0.00 0.00 0.00 93 1012.6
20260831041202 60 188 0.0 1.0 0.00 0.00 0.00 93 1012.6
20260831041106 60 188 0.0 1.0 0.00 0.00 0.00 93 1012.6
20260831040903 60 188 0.0 1.0 0.00 0.00 0.00 93 1012.6
20260831040702 60 188 0.0 1.0 0.00 0.00 0.00 93 1012.6
20260831040602 60 188 0.0 1.0 0.00 0.00 0.00 93 1012.5
20260831040507 60 188 0.0 2.0 0.00 0.00 0.00 93 1012.6
20260831040205 60 188 0.0 2.0 0.00 0.00 0.00 93 1012.6
20260831040115 60 188 0.0 2.0 0.00 0.00 0.00 93 1012.6
20260831040006 60 188 0.0 2.0 0.00 0.00 0.00 93 1012.6
20260831035704 60 188 0.0 2.0 0.00 0.00 0.00 93 1012.6
20260831035504 60 188 2.0 2.0 0.00 0.00 0.00 93 1012.6
20260831035204 60 188 0.0 2.0 0.00 0.00 0.00 94 1012.5
20260831034902 60 188 2.0 2.0 0.00 0.00 0.00 93 1012.6
20260831034803 60 188 1.0 2.0 0.00 0.00 0.00 93 1012.6
20260831034602 60 188 0.0 2.0 0.00 0.00 0.00 93 1012.6
20260831034503 60 188 0.0 2.0 0.00 0.00 0.00 93 1012.5
20260831034405 60 188 0.0 2.0 0.00 0.00 0.00 93 1012.6
20260831034302 60 188 0.0 2.0 0.00 0.00 0.00 93 1012.6
20260831034203 60 188 0.0 2.0 0.00 0.00 0.00 93 1012.6
20260831034003 60 188 1.0 2.0 0.00 0.00 0.00 93 1012.5
20260831033902 60 188 1.0 3.0 0.00 0.00 0.00 93 1012.6
20260831033806 60 188 2.0 3.0 0.00 0.00 0.00 93 1012.5
20260831033603 60 188 0.0 3.0 0.00 0.00 0.00 93 1012.5
20260831033402 60 188 0.0 3.0 0.00 0.00 0.00 93 1012.6
20260831033303 60 188 0.0 3.0 0.00 0.00 0.00 93 1012.6
20260831033104 60 188 1.0 4.0 0.00 0.00 0.00 93 1012.5
20260831033004 60 188 2.0 5.0 0.00 0.00 0.00 93 1012.5
20260831032802 60 188 3.0 5.0 0.00 0.00 0.00 93 1012.5
20260831032702 60 188 2.0 5.0 0.00 0.00 0.00 93 1012.4
20260831032607 60 188 1.0 5.0 0.00 0.00 0.00 93 1012.4
20260831032403 60 188 3.0 5.0 0.00 0.00 0.00 93 1012.5
20260831032306 60 188 1.0 5.0 0.00 0.00 0.00 93 1012.4
20260831032202 60 188 2.0 5.0 0.00 0.00 0.00 93 1012.4
20260831032006 60 188 4.0 4.0 0.00 0.00 0.00 92 1012.5
20260831031902 60 188 3.0 4.0 0.00 0.00 0.00 92 1012.5
20260831031803 60 188 3.0 3.0 0.00 0.00 0.00 92 1012.5
20260831031706 60 188 2.0 2.0 0.00 0.00 0.00 92 1012.5
20260831031603 60 188 2.0 2.0 0.00 0.00 0.00 92 1012.5
20260831031405 60 188 1.0 2.0 0.00 0.00 0.00 92 1012.5
20260831031302 60 188 1.0 2.0 0.00 0.00 0.00 92 1012.5
20260831031106 60 188 1.0 2.0 0.00 0.00 0.00 92 1012.5
20260831031003 60 188 1.0 2.0 0.00 0.00 0.00 92 1012.6
20260831030903 60 188 0.0 2.0 0.00 0.00 0.00 92 1012.5
20260831030805 60 188 1.0 2.0 0.00 0.00 0.00 92 1012.6
20260831030704 60 188 1.0 2.0 0.00 0.00 0.00 92 1012.6
20260831030506 60 188 0.0 1.0 0.00 0.00 0.00 92 1012.6
20260831030304 60 188 0.0 1.0 0.00 0.00 0.00 92 1012.6
20260831030104 60 188 0.0 1.0 0.00 0.00 0.00 92 1012.6
20260831025803 61 188 0.0 1.0 0.00 0.00 0.00 92 1012.6
20260831025702 61 188 0.0 1.0 0.00 0.00 0.00 92 1012.6
20260831025606 61 188 0.0 1.0 0.00 0.00 0.00 92 1012.6
20260831025504 61 188 0.0 1.0 0.00 0.00 0.00 92 1012.6
20260831025402 61 188 1.0 1.0 0.00 0.00 0.00 92 1012.6
20260831025306 61 188 0.0 2.0 0.00 0.00 0.00 92 1012.6
20260831025204 61 188 0.0 2.0 0.00 0.00 0.00 92 1012.6
20260831025103 61 188 0.0 2.0 0.00 0.00 0.00 92 1012.6
20260831025006 61 188 0.0 2.0 0.00 0.00 0.00 92 1012.6
20260831024903 61 188 0.0 2.0 0.00 0.00 0.00 92 1012.6
20260831024802 61 188 0.0 2.0 0.00 0.00 0.00 92 1012.6
20260831024706 61 188 0.0 2.0 0.00 0.00 0.00 92 1012.6
20260831024604 61 188 0.0 2.0 0.00 0.00 0.00 92 1012.6
20260831024503 61 188 1.0 2.0 0.00 0.00 0.00 92 1012.6
20260831024407 61 188 1.0 2.0 0.00 0.00 0.00 92 1012.6
20260831024304 61 188 1.0 2.0 0.00 0.00 0.00 92 1012.5
20260831024204 61 188 1.0 2.0 0.00 0.00 0.00 92 1012.6
20260831024106 61 188 0.0 2.0 0.00 0.00 0.00 92 1012.6
20260831024004 61 188 0.0 2.0 0.00 0.00 0.00 92 1012.6
20260831023904 61 188 0.0 2.0 0.00 0.00 0.00 92 1012.6
20260831023806 61 188 0.0 2.0 0.00 0.00 0.00 92 1012.6
20260831023703 61 188 0.0 2.0 0.00 0.00 0.00 92 1012.5
20260831023604 61 188 0.0 2.0 0.00 0.00 0.00 92 1012.6
20260831023505 61 188 0.0 2.0 0.00 0.00 0.00 92 1012.5
20260831023402 61 188 1.0 2.0 0.00 0.00 0.00 92 1012.5
20260831023302 61 188 1.0 2.0 0.00 0.00 0.00 92 1012.5
20260831023205 61 188 2.0 3.0 0.00 0.00 0.00 92 1012.5
20260831023103 61 188 1.0 3.0 0.00 0.00 0.00 92 1012.5
20260831023004 61 188 0.0 3.0 0.00 0.00 0.00 92 1012.5
20260831022906 61 188 0.0 3.0 0.00 0.00 0.00 92 1012.5
20260831022702 61 188 1.0 3.0 0.00 0.00 0.00 92 1012.4
20260831022605 61 188 1.0 3.0 0.00 0.00 0.00 92 1012.4
20260831022504 61 188 1.0 3.0 0.00 0.00 0.00 92 1012.4
20260831022403 61 188 1.0 3.0 0.00 0.00 0.00 92 1012.4
20260831022307 61 188 1.0 3.0 0.00 0.00 0.00 92 1012.4
20260831022203 61 188 2.0 3.0 0.00 0.00 0.00 91 1012.4
20260831022103 61 188 2.0 3.0 0.00 0.00 0.00 91 1012.5
20260831022008 61 188 2.0 3.0 0.00 0.00 0.00 91 1012.4
20260831021903 61 188 1.0 3.0 0.00 0.00 0.00 91 1012.4
20260831021804 61 188 1.0 3.0 0.00 0.00 0.00 91 1012.4
20260831021705 61 188 2.0 3.0 0.00 0.00 0.00 91 1012.5
20260831021603 61 188 1.0 3.0 0.00 0.00 0.00 91 1012.5
20260831021503 61 188 1.0 3.0 0.00 0.00 0.00 91 1012.4
20260831021405 61 188 2.0 3.0 0.00 0.00 0.00 91 1012.4
20260831021303 61 188 2.0 3.0 0.00 0.00 0.00 91 1012.5
20260831021204 61 188 2.0 3.0 0.00 0.00 0.00 91 1012.4
20260831021105 61 188 2.0 3.0 0.00 0.00 0.00 91 1012.4
20260831021003 61 188 2.0 3.0 0.00 0.00 0.00 91 1012.4
20260831020903 61 188 1.0 3.0 0.00 0.00 0.00 91 1012.4
20260831020805 61 188 2.0 3.0 0.00 0.00 0.00 91 1012.4
20260831020703 61 188 2.0 4.0 0.00 0.00 0.00 91 1012.4
20260831020602 61 188 2.0 4.0 0.00 0.00 0.00 91 1012.4
20260831020520 61 188 2.0 4.0 0.00 0.00 0.00 91 1012.4
20260831020304 61 188 3.0 4.0 0.00 0.00 0.00 91 1012.4
20260831020114 62 188 2.0 4.0 0.00 0.00 0.00 91 1012.4
20260831020006 62 188 2.0 4.0 0.00 0.00 0.00 91 1012.4
20260831015905 62 188 3.0 4.0 0.00 0.00 0.00 91 1012.4
20260831015803 62 188 2.0 4.0 0.00 0.00 0.00 91 1012.4
20260831015403 62 188 3.0 3.0 0.00 0.00 0.00 91 1012.4
20260831015306 62 188 2.0 3.0 0.00 0.00 0.00 91 1012.4
20260831015203 62 188 2.0 3.0 0.00 0.00 0.00 91 1012.4
20260831015103 62 188 3.0 3.0 0.00 0.00 0.00 91 1012.4
20260831014902 62 188 1.0 2.0 0.00 0.00 0.00 91 1012.4
20260831014802 62 188 2.0 2.0 0.00 0.00 0.00 91 1012.4
20260831014705 62 188 2.0 2.0 0.00 0.00 0.00 91 1012.4
20260831014602 62 188 2.0 2.0 0.00 0.00 0.00 91 1012.4
20260831014503 62 188 2.0 2.0 0.00 0.00 0.00 91 1012.4
20260831014406 62 188 2.0 2.0 0.00 0.00 0.00 91 1012.4
20260831014302 62 188 1.0 2.0 0.00 0.00 0.00 91 1012.4
20260831014204 62 188 2.0 2.0 0.00 0.00 0.00 91 1012.4
20260831014107 62 188 1.0 2.0 0.00 0.00 0.00 91 1012.5
20260831014003 62 188 1.0 2.0 0.00 0.00 0.00 91 1012.5
20260831013902 62 188 1.0 1.0 0.00 0.00 0.00 91 1012.5
20260831013805 62 188 0.0 0.0 0.00 0.00 0.00 91 1012.4
20260831013603 62 188 0.0 0.0 0.00 0.00 0.00 91 1012.5
20260831013505 62 188 0.0 0.0 0.00 0.00 0.00 91 1012.5
20260831013403 62 188 0.0 0.0 0.00 0.00 0.00 91 1012.4
20260831013303 62 188 0.0 0.0 0.00 0.00 0.00 91 1012.5
20260831013205 62 188 0.0 1.0 0.00 0.00 0.00 91 1012.5
20260831013004 62 188 0.0 2.0 0.00 0.00 0.00 91 1012.5
20260831012905 62 188 0.0 2.0 0.00 0.00 0.00 91 1012.5
20260831012803 62 188 0.0 2.0 0.00 0.00 0.00 91 1012.5
20260831012703 62 188 0.0 2.0 0.00 0.00 0.00 91 1012.6
20260831012605 62 188 0.0 2.0 0.00 0.00 0.00 91 1012.5
20260831012503 62 188 0.0 2.0 0.00 0.00 0.00 91 1012.5
20260831012403 62 188 0.0 2.0 0.00 0.00 0.00 91 1012.5
20260831012306 62 188 0.0 2.0 0.00 0.00 0.00 91 1012.5
20260831012203 62 188 0.0 2.0 0.00 0.00 0.00 91 1012.5
20260831012103 62 188 0.0 2.0 0.00 0.00 0.00 91 1012.5
20260831012006 62 188 1.0 2.0 0.00 0.00 0.00 91 1012.5
20260831011903 62 188 2.0 2.0 0.00 0.00 0.00 91 1012.5
20260831011803 62 188 0.0 2.0 0.00 0.00 0.00 90 1012.5
20260831011604 62 188 0.0 2.0 0.00 0.00 0.00 90 1012.5
20260831011405 63 188 0.0 3.0 0.00 0.00 0.00 90 1012.5
20260831011303 63 188 0.0 3.0 0.00 0.00 0.00 90 1012.4
20260831011203 63 188 0.0 3.0 0.00 0.00 0.00 90 1012.5
20260831011105 63 188 0.0 3.0 0.00 0.00 0.00 90 1012.4
20260831011003 63 188 0.0 3.0 0.00 0.00 0.00 90 1012.5
20260831010805 63 188 1.0 3.0 0.00 0.00 0.00 90 1012.4
20260831010702 63 188 1.0 3.0 0.00 0.00 0.00 90 1012.5
20260831010603 63 188 2.0 3.0 0.00 0.00 0.00 90 1012.4
20260831010505 63 188 2.0 2.0 0.00 0.00 0.00 90 1012.5
20260831010403 63 188 1.0 2.0 0.00 0.00 0.00 90 1012.5
20260831010303 63 188 1.0 2.0 0.00 0.00 0.00 90 1012.5
20260831010205 63 188 1.0 2.0 0.00 0.00 0.00 90 1012.5
20260831010006 63 188 1.0 2.0 0.00 0.00 0.00 90 1012.5
20260831005905 63 188 1.0 2.0 0.00 0.00 0.00 90 1012.5
20260831005803 63 188 1.0 2.0 0.00 0.00 0.00 90 1012.5
20260831005702 63 188 2.0 2.0 0.00 0.00 0.00 90 1012.5
20260831005605 63 188 1.0 1.0 0.00 0.00 0.00 90 1012.5
20260831005502 63 188 1.0 1.0 0.00 0.00 0.00 90 1012.5
20260831005402 63 188 0.0 3.0 0.00 0.00 0.00 90 1012.5
20260831005306 63 188 0.0 3.0 0.00 0.00 0.00 90 1012.5
20260831005006 63 188 0.0 3.0 0.00 0.00 0.00 90 1012.5
20260831004803 63 188 1.0 3.0 0.00 0.00 0.00 90 1012.6
20260831004705 63 188 0.0 3.0 0.00 0.00 0.00 90 1012.5
20260831004602 63 188 0.0 3.0 0.00 0.00 0.00 90 1012.6
20260831004406 63 188 2.0 3.0 0.00 0.00 0.00 89 1012.6
20260831004303 63 188 2.0 3.0 0.00 0.00 0.00 89 1012.5
20260831004203 63 188 3.0 3.0 0.00 0.00 0.00 89 1012.5
20260831004105 63 188 3.0 3.0 0.00 0.00 0.00 89 1012.5
20260831004005 63 188 3.0 3.0 0.00 0.00 0.00 89 1012.6
20260831003805 63 188 3.0 3.0 0.00 0.00 0.00 89 1012.6
20260831003702 63 188 2.0 3.0 0.00 0.00 0.00 89 1012.6
20260831003603 63 188 2.0 3.0 0.00 0.00 0.00 89 1012.6
20260831003402 63 188 3.0 3.0 0.00 0.00 0.00 89 1012.6
20260831003205 63 188 2.0 3.0 0.00 0.00 0.00 89 1012.6
20260831003103 63 188 3.0 3.0 0.00 0.00 0.00 89 1012.6
20260831003004 63 188 2.0 3.0 0.00 0.00 0.00 89 1012.6
20260831002905 63 188 3.0 3.0 0.00 0.00 0.00 89 1012.6
20260831002803 63 188 2.0 2.0 0.00 0.00 0.00 89 1012.6
20260831002703 63 188 1.0 1.0 0.00 0.00 0.00 89 1012.6
20260831002605 63 188 0.0 1.0 0.00 0.00 0.00 89 1012.6
20260831002403 63 188 0.0 1.0 0.00 0.00 0.00 89 1012.6
20260831002306 63 188 0.0 1.0 0.00 0.00 0.00 89 1012.7
20260831002202 63 188 0.0 1.0 0.00 0.00 0.00 89 1012.6
20260831002102 63 188 0.0 1.0 0.00 0.00 0.00 89 1012.6
20260831002006 63 188 0.0 1.0 0.00 0.00 0.00 89 1012.6
20260831001902 63 188 0.0 1.0 0.00 0.00 0.00 89 1012.6
20260831001802 63 188 0.0 1.0 0.00 0.00 0.00 89 1012.6
20260831001705 63 188 0.0 1.0 0.00 0.00 0.00 88 1012.6
20260831001603 63 188 0.0 1.0 0.00 0.00 0.00 88 1012.7
20260831001302 63 188 0.0 2.0 0.00 0.00 0.00 88 1012.6
20260831001203 64 188 0.0 2.0 0.00 0.00 0.00 88 1012.7
20260831001106 64 188 1.0 2.0 0.00 0.00 0.00 88 1012.6
20260831001003 64 188 1.0 2.0 0.00 0.00 0.00 88 1012.6
20260831000902 64 188 0.0 2.0 0.00 0.00 0.00 88 1012.7
20260831000805 64 188 0.0 2.0 0.00 0.00 0.00 88 1012.7
20260831000702 64 188 0.0 2.0 0.00 0.00 0.00 88 1012.7
20260831000505 64 188 1.0 2.0 0.00 0.00 0.00 88 1012.6
20260831000403 64 188 1.0 2.0 0.00 0.00 0.00 88 1012.7
20260831000303 64 188 2.0 2.0 0.00 0.00 0.00 88 1012.6
20260831000206 64 188 1.0 2.0 0.00 0.00 0.00 88 1012.7
20260831000114 64 188 1.0 2.0 0.00 0.00 0.00 88 1012.7
20260831000007 64 188 1.0 2.0 0.00 0.00 0.00 88 1012.7
20260830235905 64 188 1.0 3.0 0.00 0.00 0.00 88 1012.6
20260830235802 64 188 2.0 3.0 0.00 0.00 0.00 88 1012.7
20260830235702 64 188 0.0 3.0 0.00 0.00 0.00 88 1012.6
20260830235605 64 188 1.0 3.0 0.00 0.00 0.00 87 1012.7
20260830235503 64 188 2.0 3.0 0.00 0.00 0.00 87 1012.6
20260830235402 64 188 1.0 3.0 0.00 0.00 0.00 88 1012.6
20260830235103 64 188 2.0 4.0 0.00 0.00 0.00 87 1012.6
20260830235006 64 188 2.0 4.0 0.00 0.00 0.00 87 1012.6
20260830234903 64 188 3.0 4.0 0.00 0.00 0.00 87 1012.7
20260830234803 65 188 2.0 4.0 0.00 0.00 0.00 87 1012.6
20260830234705 65 188 2.0 4.0 0.00 0.00 0.00 87 1012.6
20260830234603 65 188 3.0 4.0 0.00 0.00 0.00 87 1012.6
20260830234503 65 188 2.0 4.0 0.00 0.00 0.00 87 1012.6
20260830234405 65 188 3.0 4.0 0.00 0.00 0.00 87 1012.6
20260830234303 65 188 2.0 4.0 0.00 0.00 0.00 87 1012.6
20260830234202 65 188 3.0 4.0 0.00 0.00 0.00 87 1012.7
20260830234105 65 188 3.0 4.0 0.00 0.00 0.00 87 1012.6
20260830234003 65 188 3.0 4.0 0.00 0.00 0.00 87 1012.7
20260830233805 65 188 1.0 4.0 0.00 0.00 0.00 87 1012.7
20260830233703 65 188 2.0 4.0 0.00 0.00 0.00 87 1012.6
20260830233603 65 188 3.0 4.0 0.00 0.00 0.00 87 1012.7
20260830233505 65 188 3.0 4.0 0.00 0.00 0.00 87 1012.6
20260830233402 65 188 3.0 4.0 0.00 0.00 0.00 88 1012.7
20260830233005 65 188 3.0 4.0 0.00 0.00 0.00 88 1012.7
20260830232905 65 188 3.0 3.0 0.00 0.00 0.00 88 1012.7
20260830232803 65 188 3.0 3.0 0.00 0.00 0.00 89 1012.8
20260830232605 65 188 2.0 3.0 0.00 0.00 0.00 89 1012.7
20260830232503 65 188 2.0 3.0 0.00 0.00 0.00 89 1012.7
20260830232402 65 188 2.0 3.0 0.00 0.00 0.00 89 1012.7
20260830232306 65 188 2.0 3.0 0.00 0.00 0.00 89 1012.7
20260830232203 65 188 1.0 3.0 0.00 0.00 0.00 89 1012.7
20260830232102 65 188 0.0 3.0 0.00 0.00 0.00 89 1012.7
20260830232006 64 188 0.0 3.0 0.00 0.00 0.00 88 1012.7
20260830231903 64 188 0.0 3.0 0.00 0.00 0.00 88 1012.7
20260830231803 64 188 1.0 3.0 0.00 0.00 0.00 88 1012.7
20260830231705 64 188 2.0 3.0 0.00 0.00 0.00 88 1012.7
20260830231603 64 188 2.0 3.0 0.00 0.00 0.00 88 1012.7
20260830231405 65 188 2.0 3.0 0.00 0.00 0.00 88 1012.7
20260830231302 65 188 1.0 2.0 0.00 0.00 0.00 88 1012.7
20260830231203 65 188 0.0 2.0 0.00 0.00 0.00 88 1012.7
20260830231105 65 188 1.0 2.0 0.00 0.00 0.00 88 1012.7
20260830231003 65 188 1.0 2.0 0.00 0.00 0.00 88 1012.7
20260830230904 65 188 1.0 2.0 0.00 0.00 0.00 88 1012.7
20260830230702 65 188 0.0 2.0 0.00 0.00 0.00 88 1012.7
20260830230602 65 188 1.0 2.0 0.00 0.00 0.00 88 1012.7
20260830230505 65 188 0.0 2.0 0.00 0.00 0.00 88 1012.7
20260830230403 65 188 2.0 2.0 0.00 0.00 0.00 88 1012.7
20260830230302 65 188 1.0 2.0 0.00 0.00 0.00 88 1012.7
20260830230205 65 188 1.0 3.0 0.00 0.00 0.00 88 1012.7
20260830230006 65 188 1.0 3.0 0.00 0.00 0.00 88 1012.7
20260830225905 65 188 1.0 4.0 0.00 0.00 0.00 88 1012.8
20260830225803 65 188 1.0 4.0 0.00 0.00 0.00 88 1012.7
20260830225605 65 188 0.0 4.0 0.00 0.00 0.00 88 1012.8
20260830225503 65 188 0.0 4.0 0.00 0.00 0.00 88 1012.7
20260830225403 65 188 1.0 4.0 0.00 0.00 0.00 87 1012.7
20260830225202 65 188 2.0 4.0 0.00 0.00 0.00 87 1012.7
20260830225102 65 188 2.0 4.0 0.00 0.00 0.00 87 1012.8
20260830225006 65 188 2.0 4.0 0.00 0.00 0.00 87 1012.8
20260830224903 65 188 3.0 4.0 0.00 0.00 0.00 87 1012.7
20260830224706 65 188 2.0 4.0 0.00 0.00 0.00 87 1012.7
20260830224602 65 188 2.0 4.0 0.00 0.00 0.00 87 1012.8
20260830224503 65 188 2.0 4.0 0.00 0.00 0.00 87 1012.8
20260830224405 65 188 3.0 4.0 0.00 0.00 0.00 87 1012.8
20260830224302 65 188 3.0 4.0 0.00 0.00 0.00 87 1012.8
20260830224203 65 188 3.0 4.0 0.00 0.00 0.00 87 1012.9
20260830224106 65 188 3.0 4.0 0.00 0.00 0.00 87 1012.8
20260830224003 65 188 3.0 4.0 0.00 0.00 0.00 87 1012.8
20260830223902 65 188 4.0 4.0 0.00 0.00 0.00 87 1012.8
20260830223805 65 188 4.0 4.0 0.00 0.00 0.00 87 1012.8
20260830223702 65 188 4.0 4.0 0.00 0.00 0.00 87 1012.8
20260830223505 65 188 3.0 4.0 0.00 0.00 0.00 87 1012.8
20260830223402 65 188 3.0 4.0 0.00 0.00 0.00 87 1012.9
20260830223302 65 188 3.0 4.0 0.00 0.00 0.00 87 1012.9
20260830223102 65 188 3.0 4.0 0.00 0.00 0.00 87 1012.9
20260830222905 65 188 4.0 4.0 0.00 0.00 0.00 87 1012.8
20260830222802 65 188 4.0 4.0 0.00 0.00 0.00 87 1012.8
20260830222502 65 188 3.0 4.0 0.00 0.00 0.00 86 1012.9
20260830222402 65 188 4.0 4.0 0.00 0.00 0.00 87 1012.9
20260830222306 65 188 2.0 3.0 0.00 0.00 0.00 87 1012.8
20260830222203 65 188 3.0 3.0 0.00 0.00 0.00 86 1012.9
20260830222102 65 188 2.0 3.0 0.00 0.00 0.00 86 1012.8
20260830222006 65 188 2.0 3.0 0.00 0.00 0.00 86 1012.8
20260830221902 65 188 2.0 3.0 0.00 0.00 0.00 86 1012.8
20260830221706 65 188 1.0 2.0 0.00 0.00 0.00 86 1012.8
20260830221602 65 188 1.0 2.0 0.00 0.00 0.00 86 1012.7
20260830221504 65 188 0.0 2.0 0.00 0.00 0.00 86 1012.7
20260830221302 65 188 0.0 2.0 0.00 0.00 0.00 86 1012.7
20260830221203 65 188 0.0 2.0 0.00 0.00 0.00 86 1012.7
20260830221004 65 188 0.0 2.0 0.00 0.00 0.00 86 1012.7
20260830220806 66 188 1.0 2.0 0.00 0.00 0.00 86 1012.7
20260830220702 66 188 1.0 2.0 0.00 0.00 0.00 86 1012.7
20260830220603 66 188 1.0 2.0 0.00 0.00 0.00 86 1012.7